Observation data for Hobbs on 10/17/2020      Previous  Date  Next       Current Mesonet Observations  Soil Data  Daily Summary Page  Observations in Plain Language
KHO1 170500Z 17005KT 11/M04 A3019 RMK A01 T01081036  RH  036%=      5-min Rain = 0
KHO1 170501Z 17005KT 11/M04 A3019 RMK A01 T01081037  RH  036%=      5-min Rain = 0
KHO1 170502Z 16005KT 11/M04 A3019 RMK A01 T01071038  RH  036%=      5-min Rain = 0
KHO1 170503Z 16005KT 11/M04 A3019 RMK A01 T01051040  RH  036%=      5-min Rain = 0
KHO1 170504Z 16006KT 10/M04 A3019 RMK A01 T01031042  RH  036%=      5-min Rain = 0
KHO1 170505Z 16006KT 10/M04 A3019 RMK A01 T01021042  RH  036%=      5-min Rain = 0
KHO1 170506Z 16006KT 10/M04 A3019 RMK A01 T01021042  RH  036%=      5-min Rain = 0
KHO1 170507Z 17006KT 10/M04 A3019 RMK A01 T01021041  RH  036%=      5-min Rain = 0
KHO1 170508Z 16006KT 10/M04 A3019 RMK A01 T01021041  RH  036%=      5-min Rain = 0
KHO1 170509Z 16006KT 10/M04 A3019 RMK A01 T01011041  RH  037%=      5-min Rain = 0
KHO1 170510Z 16005KT 10/M04 A3018 RMK A01 T01011040  RH  037%=      5-min Rain = 0
KHO1 170511Z 17005KT 10/M04 A3018 RMK A01 T01011040  RH  037%=      5-min Rain = 0
KHO1 170512Z 17005KT 10/M04 A3018 RMK A01 T01011039  RH  037%=      5-min Rain = 0
KHO1 170513Z 17005KT 10/M04 A3018 RMK A01 T01011038  RH  037%=      5-min Rain = 0
KHO1 170514Z 17005KT 10/M04 A3018 RMK A01 T01021037  RH  037%=      5-min Rain = 0
KHO1 170515Z 17005KT 10/M04 A3018 RMK A01 T01031037  RH  037%=      5-min Rain = 0
KHO1 170516Z 17005KT 10/M04 A3018 RMK A01 T01031037  RH  037%=      5-min Rain = 0
KHO1 170517Z 17005KT 10/M04 A3018 RMK A01 T01031037  RH  037%=      5-min Rain = 0
KHO1 170518Z 17005KT 10/M04 A3018 RMK A01 T01031037  RH  037%=      5-min Rain = 0
KHO1 170519Z 17004KT 10/M04 A3018 RMK A01 T01031037  RH  037%=      5-min Rain = 0
KHO1 170520Z 17004KT 10/M04 A3018 RMK A01 T01031037  RH  037%=      5-min Rain = 0
KHO1 170521Z 17004KT 10/M04 A3018 RMK A01 T01021037  RH  037%=      5-min Rain = 0
KHO1 170522Z 17003KT 10/M04 A3018 RMK A01 T01021036  RH  038%=      5-min Rain = 0
KHO1 170523Z 17003KT 10/M04 A3018 RMK A01 T01021036  RH  038%=      5-min Rain = 0
KHO1 170524Z 17003KT 10/M04 A3018 RMK A01 T01021037  RH  038%=      5-min Rain = 0
KHO1 170525Z 17003KT 10/M04 A3018 RMK A01 T01011037  RH  038%=      5-min Rain = 0
KHO1 170526Z 17003KT 10/M04 A3018 RMK A01 T01011037  RH  038%=      5-min Rain = 0
KHO1 170527Z 18003KT 10/M04 A3018 RMK A01 T01001036  RH  038%=      5-min Rain = 0
KHO1 170528Z 18003KT 10/M04 A3018 RMK A01 T01001036  RH  038%=      5-min Rain = 0
KHO1 170529Z 18004KT 10/M04 A3018 RMK A01 T01001036  RH  038%=      5-min Rain = 0
KHO1 170530Z 18003KT 10/M04 A3018 RMK A01 T01001035  RH  038%=      5-min Rain = 0
KHO1 170531Z 18004KT 10/M04 A3018 RMK A01 T00991036  RH  038%=      5-min Rain = 0
KHO1 170532Z 18004KT 10/M04 A3018 RMK A01 T00991035  RH  039%=      5-min Rain = 0
KHO1 170533Z 18005KT 10/M04 A3018 RMK A01 T00991036  RH  038%=      5-min Rain = 0
KHO1 170534Z 18005KT 10/M04 A3018 RMK A01 T00981037  RH  038%=      5-min Rain = 0
KHO1 170535Z 18005KT 10/M04 A3018 RMK A01 T00971037  RH  039%=      5-min Rain = 0
KHO1 170536Z 18005KT 10/M04 A3018 RMK A01 T00951038  RH  039%=      5-min Rain = 0
KHO1 170537Z 18005KT 09/M04 A3018 RMK A01 T00941037  RH  040%=      5-min Rain = 0
KHO1 170538Z 18005KT 09/M04 A3018 RMK A01 T00941035  RH  040%=      5-min Rain = 0
KHO1 170539Z 18005KT 09/M04 A3018 RMK A01 T00941035  RH  040%=      5-min Rain = 0
KHO1 170540Z 18005KT 09/M04 A3018 RMK A01 T00941035  RH  040%=      5-min Rain = 0
KHO1 170541Z 18006KT 10/M04 A3018 RMK A01 T00951035  RH  040%=      5-min Rain = 0
KHO1 170542Z 18006KT 10/M03 A3018 RMK A01 T00951034  RH  040%=      5-min Rain = 0
KHO1 170543Z 18005KT 10/M03 A3018 RMK A01 T00961034  RH  040%=      5-min Rain = 0
KHO1 170544Z 18006KT 10/M03 A3018 RMK A01 T00961034  RH  040%=      5-min Rain = 0
KHO1 170545Z 18005KT 10/M03 A3018 RMK A01 T00971033  RH  040%=      5-min Rain = 0
KHO1 170546Z 18005KT 10/M03 A3018 RMK A01 T00981034  RH  039%=      5-min Rain = 0
KHO1 170547Z 18006KT 10/M03 A3018 RMK A01 T00981034  RH  039%=      5-min Rain = 0
KHO1 170548Z 18005KT 10/M03 A3018 RMK A01 T00991034  RH  039%=      5-min Rain = 0
KHO1 170549Z 18005KT 10/M03 A3017 RMK A01 T01001034  RH  039%=      5-min Rain = 0
KHO1 170550Z 18006KT 10/M04 A3017 RMK A01 T01001035  RH  038%=      5-min Rain = 0
KHO1 170551Z 18006KT 10/M04 A3017 RMK A01 T01011035  RH  038%=      5-min Rain = 0
KHO1 170552Z 18006KT 10/M04 A3017 RMK A01 T01011035  RH  038%=      5-min Rain = 0
KHO1 170553Z 18006KT 10/M04 A3017 RMK A01 T01011035  RH  038%=      5-min Rain = 0
KHO1 170554Z 18006KT 10/M04 A3017 RMK A01 T01011035  RH  038%=      5-min Rain = 0
KHO1 170555Z 17006KT 10/M04 A3017 RMK A01 T01011035  RH  038%=      5-min Rain = 0
KHO1 170556Z 17006KT 10/M04 A3017 RMK A01 T01011035  RH  038%=      5-min Rain = 0
KHO1 170557Z 17005KT 10/M04 A3017 RMK A01 T01011035  RH  038%=      5-min Rain = 0
KHO1 170558Z 17006KT 10/M04 A3017 RMK A01 T01011035  RH  038%=      5-min Rain = 0
KHO1 170559Z 17005KT 10/M04 A3017 RMK A01 T01011035  RH  038%=      5-min Rain = 0
KHO1 170600Z 17005KT 10/M04 A3017 RMK A01 T01011035  RH  038%=      5-min Rain = 0
KHO1 170601Z 17005KT 10/M04 A3017 RMK A01 T01011035  RH  038%=      5-min Rain = 0
KHO1 170602Z 17005KT 10/M04 A3017 RMK A01 T01001036  RH  038%=      5-min Rain = 0
KHO1 170603Z 18005KT 10/M04 A3017 RMK A01 T01001036  RH  038%=      5-min Rain = 0
KHO1 170604Z 18004KT 10/M04 A3017 RMK A01 T00991036  RH  039%=      5-min Rain = 0
KHO1 170605Z 18005KT 10/M04 A3017 RMK A01 T00991035  RH  039%=      5-min Rain = 0
KHO1 170606Z 18004KT 10/M04 A3017 RMK A01 T00991036  RH  039%=      5-min Rain = 0
KHO1 170607Z 18005KT 10/M04 A3017 RMK A01 T00991035  RH  039%=      5-min Rain = 0
KHO1 170608Z 18005KT 10/M04 A3017 RMK A01 T00981036  RH  039%=      5-min Rain = 0
KHO1 170609Z 18005KT 10/M04 A3017 RMK A01 T00981037  RH  038%=      5-min Rain = 0
KHO1 170610Z 18005KT 10/M04 A3017 RMK A01 T00981037  RH  038%=      5-min Rain = 0
KHO1 170611Z 18005KT 10/M04 A3017 RMK A01 T00971037  RH  038%=      5-min Rain = 0
KHO1 170612Z 18005KT 10/M04 A3017 RMK A01 T00971037  RH  038%=      5-min Rain = 0
KHO1 170613Z 18006KT 10/M04 A3017 RMK A01 T00971037  RH  039%=      5-min Rain = 0
KHO1 170614Z 19006KT 10/M04 A3017 RMK A01 T00971037  RH  039%=      5-min Rain = 0
KHO1 170615Z 19005KT 10/M04 A3017 RMK A01 T00961037  RH  039%=      5-min Rain = 0
KHO1 170616Z 19005KT 10/M04 A3017 RMK A01 T00961036  RH  039%=      5-min Rain = 0
KHO1 170617Z 19005KT 10/M04 A3017 RMK A01 T00961037  RH  039%=      5-min Rain = 0
KHO1 170618Z 19005KT 10/M04 A3017 RMK A01 T00961038  RH  039%=      5-min Rain = 0
KHO1 170619Z 19006KT 10/M04 A3016 RMK A01 T00951038  RH  039%=      5-min Rain = 0
KHO1 170620Z 19006KT 10/M04 A3016 RMK A01 T00961037  RH  039%=      5-min Rain = 0
KHO1 170621Z 19006KT 10/M04 A3016 RMK A01 T00961036  RH  039%=      5-min Rain = 0
KHO1 170622Z 19007KT 10/M03 A3016 RMK A01 T00971034  RH  039%=      5-min Rain = 0
KHO1 170623Z 18007KT 10/M03 A3016 RMK A01 T00981034  RH  039%=      5-min Rain = 0
KHO1 170624Z 18007KT 10/M03 A3016 RMK A01 T00991033  RH  039%=      5-min Rain = 0
KHO1 170625Z 18007KT 10/M03 A3016 RMK A01 T00991032  RH  039%=      5-min Rain = 0
KHO1 170626Z 19007KT 10/M03 A3016 RMK A01 T01011032  RH  039%=      5-min Rain = 0
KHO1 170627Z 18007KT 10/M03 A3016 RMK A01 T01011032  RH  039%=      5-min Rain = 0
KHO1 170628Z 18007KT 10/M03 A3016 RMK A01 T01021031  RH  039%=      5-min Rain = 0
KHO1 170629Z 18006KT 10/M03 A3016 RMK A01 T01031031  RH  039%=      5-min Rain = 0
KHO1 170630Z 18007KT 10/M03 A3016 RMK A01 T01031032  RH  039%=      5-min Rain = 0
KHO1 170631Z 18006KT 10/M03 A3016 RMK A01 T01031032  RH  039%=      5-min Rain = 0
KHO1 170632Z 19005KT 10/M03 A3016 RMK A01 T01031031  RH  039%=      5-min Rain = 0
KHO1 170633Z 19005KT 10/M03 A3016 RMK A01 T01031031  RH  039%=      5-min Rain = 0
KHO1 170634Z 19005KT 10/M03 A3016 RMK A01 T01021031  RH  039%=      5-min Rain = 0
KHO1 170635Z 19005KT 10/M03 A3016 RMK A01 T01021031  RH  039%=      5-min Rain = 0
KHO1 170636Z 20005KT 10/M03 A3016 RMK A01 T01021031  RH  039%=      5-min Rain = 0
KHO1 170637Z 19006KT 10/M03 A3016 RMK A01 T01021033  RH  039%=      5-min Rain = 0
KHO1 170638Z 19006KT 10/M03 A3016 RMK A01 T01011033  RH  039%=      5-min Rain = 0
KHO1 170639Z 19007KT 10/M03 A3015 RMK A01 T01011034  RH  039%=      5-min Rain = 0
KHO1 170640Z 19006KT 10/M04 A3015 RMK A01 T01001035  RH  038%=      5-min Rain = 0
KHO1 170641Z 19006KT 10/M04 A3015 RMK A01 T01001035  RH  039%=      5-min Rain = 0
KHO1 170642Z 19007KT 10/M04 A3015 RMK A01 T01001035  RH  039%=      5-min Rain = 0
KHO1 170643Z 19006KT 10/M04 A3015 RMK A01 T00991035  RH  038%=      5-min Rain = 0
KHO1 170644Z 20006KT 10/M04 A3015 RMK A01 T00991036  RH  039%=      5-min Rain = 0
KHO1 170645Z 20006KT 10/M04 A3015 RMK A01 T00991036  RH  039%=      5-min Rain = 0
KHO1 170646Z 20006KT 10/M04 A3015 RMK A01 T00981035  RH  039%=      5-min Rain = 0
KHO1 170647Z 19006KT 10/M03 A3015 RMK A01 T00981034  RH  039%=      5-min Rain = 0
KHO1 170648Z 20006KT 10/M03 A3015 RMK A01 T00991033  RH  039%=      5-min Rain = 0
KHO1 170649Z 20006KT 10/M03 A3015 RMK A01 T00991034  RH  039%=      5-min Rain = 0
KHO1 170650Z 20006KT 10/M03 A3015 RMK A01 T00991034  RH  039%=      5-min Rain = 0
KHO1 170651Z 20006KT 10/M03 A3015 RMK A01 T00991033  RH  039%=      5-min Rain = 0
KHO1 170652Z 20007KT 10/M03 A3015 RMK A01 T00991032  RH  040%=      5-min Rain = 0
KHO1 170653Z 19005KT 10/M03 A3015 RMK A01 T01001032  RH  040%=      5-min Rain = 0
KHO1 170654Z 19005KT 10/M03 A3015 RMK A01 T01001032  RH  039%=      5-min Rain = 0
KHO1 170655Z 20005KT 10/M03 A3015 RMK A01 T01001032  RH  039%=      5-min Rain = 0
KHO1 170656Z 20005KT 10/M03 A3015 RMK A01 T01001031  RH  040%=      5-min Rain = 0
KHO1 170657Z 20005KT 10/M03 A3015 RMK A01 T00991031  RH  040%=      5-min Rain = 0
KHO1 170658Z 20005KT 10/M03 A3015 RMK A01 T01001030  RH  040%=      5-min Rain = 0
KHO1 170659Z 20005KT 10/M03 A3015 RMK A01 T01001030  RH  040%=      5-min Rain = 0
KHO1 170700Z 20005KT 10/M03 A3015 RMK A01 T01001030  RH  040%=      5-min Rain = 0
KHO1 170701Z 20005KT 10/M03 A3015 RMK A01 T01001030  RH  040%=      5-min Rain = 0
KHO1 170702Z 19005KT 10/M03 A3015 RMK A01 T01001029  RH  040%=      5-min Rain = 0
KHO1 170703Z 20005KT 10/M03 A3015 RMK A01 T01001029  RH  040%=      5-min Rain = 0
KHO1 170704Z 19005KT 10/M03 A3015 RMK A01 T01001030  RH  040%=      5-min Rain = 0
KHO1 170705Z 20005KT 10/M03 A3015 RMK A01 T01001030  RH  040%=      5-min Rain = 0
KHO1 170706Z 19005KT 10/M03 A3015 RMK A01 T00991030  RH  040%=      5-min Rain = 0
KHO1 170707Z 19005KT 10/M03 A3015 RMK A01 T00991030  RH  040%=      5-min Rain = 0
KHO1 170708Z 19005KT 10/M03 A3014 RMK A01 T00991030  RH  040%=      5-min Rain = 0
KHO1 170709Z 20005KT 10/M03 A3014 RMK A01 T00981030  RH  040%=      5-min Rain = 0
KHO1 170710Z 19005KT 10/M03 A3014 RMK A01 T00981030  RH  041%=      5-min Rain = 0
KHO1 170711Z 20004KT 10/M03 A3014 RMK A01 T00971030  RH  041%=      5-min Rain = 0
KHO1 170712Z 20004KT 10/M03 A3014 RMK A01 T00961031  RH  041%=      5-min Rain = 0
KHO1 170713Z 20004KT 10/M03 A3014 RMK A01 T00961030  RH  041%=      5-min Rain = 0
KHO1 170714Z 20004KT 10/M03 A3014 RMK A01 T00951031  RH  041%=      5-min Rain = 0
KHO1 170715Z 20004KT 10/M03 A3014 RMK A01 T00951031  RH  041%=      5-min Rain = 0
KHO1 170716Z 20005KT 09/M03 A3014 RMK A01 T00941032  RH  041%=      5-min Rain = 0
KHO1 170717Z 20005KT 09/M03 A3014 RMK A01 T00931032  RH  041%=      5-min Rain = 0
KHO1 170718Z 20005KT 09/M03 A3014 RMK A01 T00921032  RH  042%=      5-min Rain = 0
KHO1 170719Z 20005KT 09/M03 A3014 RMK A01 T00911032  RH  042%=      5-min Rain = 0
KHO1 170720Z 20004KT 09/M03 A3014 RMK A01 T00911032  RH  042%=      5-min Rain = 0
KHO1 170721Z 20005KT 09/M03 A3014 RMK A01 T00901032  RH  042%=      5-min Rain = 0
KHO1 170722Z 20005KT 09/M03 A3014 RMK A01 T00901031  RH  042%=      5-min Rain = 0
KHO1 170723Z 20005KT 09/M03 A3014 RMK A01 T00901032  RH  042%=      5-min Rain = 0
KHO1 170724Z 20005KT 09/M03 A3014 RMK A01 T00901032  RH  042%=      5-min Rain = 0
KHO1 170725Z 20005KT 09/M03 A3014 RMK A01 T00891032  RH  042%=      5-min Rain = 0
KHO1 170726Z 20005KT 09/M03 A3014 RMK A01 T00891032  RH  042%=      5-min Rain = 0
KHO1 170727Z 20005KT 09/M03 A3014 RMK A01 T00891031  RH  043%=      5-min Rain = 0
KHO1 170728Z 19005KT 09/M03 A3014 RMK A01 T00891032  RH  043%=      5-min Rain = 0
KHO1 170729Z 20005KT 09/M03 A3014 RMK A01 T00881032  RH  043%=      5-min Rain = 0
KHO1 170730Z 19005KT 09/M03 A3014 RMK A01 T00881032  RH  043%=      5-min Rain = 0
KHO1 170731Z 20005KT 09/M03 A3014 RMK A01 T00881031  RH  043%=      5-min Rain = 0
KHO1 170732Z 20006KT 09/M03 A3013 RMK A01 T00881031  RH  043%=      5-min Rain = 0
KHO1 170733Z 20005KT 09/M03 A3014 RMK A01 T00871032  RH  043%=      5-min Rain = 0
KHO1 170734Z 20005KT 09/M03 A3013 RMK A01 T00871032  RH  043%=      5-min Rain = 0
KHO1 170735Z 20006KT 09/M03 A3013 RMK A01 T00861032  RH  043%=      5-min Rain = 0
KHO1 170736Z 19006KT 09/M03 A3013 RMK A01 T00861031  RH  044%=      5-min Rain = 0
KHO1 170737Z 19006KT 09/M03 A3013 RMK A01 T00871030  RH  044%=      5-min Rain = 0
KHO1 170738Z 19006KT 09/M03 A3013 RMK A01 T00871029  RH  044%=      5-min Rain = 0
KHO1 170739Z 19006KT 09/M03 A3013 RMK A01 T00871029  RH  044%=      5-min Rain = 0
KHO1 170740Z 19006KT 09/M03 A3013 RMK A01 T00881029  RH  044%=      5-min Rain = 0
KHO1 170741Z 19006KT 09/M03 A3013 RMK A01 T00881029  RH  044%=      5-min Rain = 0
KHO1 170742Z 19005KT 09/M03 A3013 RMK A01 T00881029  RH  044%=      5-min Rain = 0
KHO1 170743Z 19005KT 09/M03 A3013 RMK A01 T00881029  RH  044%=      5-min Rain = 0
KHO1 170744Z 19005KT 09/M03 A3013 RMK A01 T00881029  RH  044%=      5-min Rain = 0
KHO1 170745Z 19005KT 09/M03 A3013 RMK A01 T00881029  RH  044%=      5-min Rain = 0
KHO1 170746Z 19005KT 09/M03 A3013 RMK A01 T00881029  RH  044%=      5-min Rain = 0
KHO1 170747Z 19005KT 09/M03 A3013 RMK A01 T00881029  RH  044%=      5-min Rain = 0
KHO1 170748Z 18005KT 09/M03 A3013 RMK A01 T00881028  RH  044%=      5-min Rain = 0
KHO1 170749Z 19004KT 09/M03 A3013 RMK A01 T00881028  RH  044%=      5-min Rain = 0
KHO1 170750Z 19004KT 09/M03 A3013 RMK A01 T00881027  RH  044%=      5-min Rain = 0
KHO1 170751Z 19004KT 09/M03 A3013 RMK A01 T00891025  RH  044%=      5-min Rain = 0
KHO1 170752Z 19004KT 09/M03 A3013 RMK A01 T00901025  RH  044%=      5-min Rain = 0
KHO1 170753Z 19004KT 09/M03 A3013 RMK A01 T00911026  RH  044%=      5-min Rain = 0
KHO1 170754Z 19004KT 09/M03 A3013 RMK A01 T00911025  RH  044%=      5-min Rain = 0
KHO1 170755Z 19004KT 09/M03 A3013 RMK A01 T00911026  RH  044%=      5-min Rain = 0
KHO1 170756Z 19004KT 09/M03 A3013 RMK A01 T00911027  RH  044%=      5-min Rain = 0
KHO1 170757Z 19004KT 09/M03 A3013 RMK A01 T00911027  RH  043%=      5-min Rain = 0
KHO1 170758Z 19004KT 09/M03 A3012 RMK A01 T00911027  RH  043%=      5-min Rain = 0
KHO1 170759Z 19004KT 09/M03 A3012 RMK A01 T00901027  RH  044%=      5-min Rain = 0
KHO1 170800Z 19005KT 09/M03 A3012 RMK A01 T00901027  RH  044%=      5-min Rain = 0
KHO1 170801Z 20004KT 09/M03 A3012 RMK A01 T00901026  RH  044%=      5-min Rain = 0
KHO1 170802Z 20004KT 09/M03 A3012 RMK A01 T00901027  RH  044%=      5-min Rain = 0
KHO1 170803Z 20004KT 09/M03 A3012 RMK A01 T00901028  RH  043%=      5-min Rain = 0
KHO1 170804Z 20004KT 09/M03 A3012 RMK A01 T00891029  RH  044%=      5-min Rain = 0
KHO1 170805Z 20003KT 09/M03 A3012 RMK A01 T00871029  RH  044%=      5-min Rain = 0
KHO1 170806Z 20004KT 09/M03 A3012 RMK A01 T00871028  RH  044%=      5-min Rain = 0
KHO1 170807Z 20004KT 09/M03 A3012 RMK A01 T00871027  RH  045%=      5-min Rain = 0
KHO1 170808Z 20004KT 09/M03 A3012 RMK A01 T00871027  RH  045%=      5-min Rain = 0
KHO1 170809Z 21004KT 09/M03 A3012 RMK A01 T00871027  RH  045%=      5-min Rain = 0
KHO1 170810Z 21004KT 09/M03 A3012 RMK A01 T00871027  RH  045%=      5-min Rain = 0
KHO1 170811Z 21004KT 09/M03 A3012 RMK A01 T00871027  RH  045%=      5-min Rain = 0
KHO1 170812Z 21004KT 09/M03 A3012 RMK A01 T00871027  RH  045%=      5-min Rain = 0
KHO1 170813Z 21003KT 09/M03 A3012 RMK A01 T00871027  RH  045%=      5-min Rain = 0
KHO1 170814Z 21004KT 09/M03 A3012 RMK A01 T00871027  RH  045%=      5-min Rain = 0
KHO1 170815Z 21004KT 09/M03 A3012 RMK A01 T00871027  RH  045%=      5-min Rain = 0
KHO1 170816Z 21004KT 09/M03 A3012 RMK A01 T00871026  RH  045%=      5-min Rain = 0
KHO1 170817Z 21003KT 09/M03 A3012 RMK A01 T00871026  RH  045%=      5-min Rain = 0
KHO1 170818Z 21004KT 09/M03 A3012 RMK A01 T00871026  RH  045%=      5-min Rain = 0
KHO1 170819Z 20004KT 09/M03 A3011 RMK A01 T00861027  RH  045%=      5-min Rain = 0
KHO1 170820Z 20004KT 09/M03 A3011 RMK A01 T00861025  RH  046%=      5-min Rain = 0
KHO1 170821Z 20005KT 09/M03 A3011 RMK A01 T00861026  RH  045%=      5-min Rain = 0
KHO1 170822Z 20005KT 09/M03 A3011 RMK A01 T00851028  RH  045%=      5-min Rain = 0
KHO1 170823Z 20005KT 08/M03 A3011 RMK A01 T00841030  RH  045%=      5-min Rain = 0
KHO1 170824Z 20005KT 08/M03 A3011 RMK A01 T00831029  RH  045%=      5-min Rain = 0
KHO1 170825Z 20005KT 08/M03 A3011 RMK A01 T00821029  RH  045%=      5-min Rain = 0
KHO1 170826Z 20005KT 08/M03 A3011 RMK A01 T00811030  RH  045%=      5-min Rain = 0
KHO1 170827Z 20005KT 08/M03 A3011 RMK A01 T00801030  RH  046%=      5-min Rain = 0
KHO1 170828Z 20006KT 08/M03 A3011 RMK A01 T00791030  RH  046%=      5-min Rain = 0
KHO1 170829Z 20005KT 08/M03 A3011 RMK A01 T00791029  RH  047%=      5-min Rain = 0
KHO1 170830Z 19006KT 08/M03 A3011 RMK A01 T00781029  RH  047%=      5-min Rain = 0
KHO1 170831Z 19006KT 08/M03 A3011 RMK A01 T00791027  RH  047%=      5-min Rain = 0
KHO1 170832Z 19006KT 08/M03 A3011 RMK A01 T00791027  RH  047%=      5-min Rain = 0
KHO1 170833Z 20005KT 08/M03 A301 RMK A01 T00791026  RH  048%=      5-min Rain = 0
KHO1 170834Z 20005KT 08/M03 A301 RMK A01 T00791026  RH  047%=      5-min Rain = 0
KHO1 170835Z 20005KT 08/M03 A301 RMK A01 T00791025  RH  048%=      5-min Rain = 0
KHO1 170836Z 20005KT 08/M03 A301 RMK A01 T00801025  RH  047%=      5-min Rain = 0
KHO1 170837Z 20005KT 08/M03 A301 RMK A01 T00801026  RH  047%=      5-min Rain = 0
KHO1 170838Z 20005KT 08/M03 A301 RMK A01 T00801026  RH  047%=      5-min Rain = 0
KHO1 170839Z 19005KT 08/M03 A301 RMK A01 T00801026  RH  047%=      5-min Rain = 0
KHO1 170840Z 19004KT 08/M03 A301 RMK A01 T00801026  RH  047%=      5-min Rain = 0
KHO1 170841Z 20005KT 08/M03 A301 RMK A01 T00801026  RH  047%=      5-min Rain = 0
KHO1 170842Z 20005KT 08/M03 A301 RMK A01 T00801026  RH  047%=      5-min Rain = 0
KHO1 170843Z 20005KT 08/M03 A301 RMK A01 T00801026  RH  047%=      5-min Rain = 0
KHO1 170844Z 20005KT 08/M03 A301 RMK A01 T00801026  RH  047%=      5-min Rain = 0
KHO1 170845Z 19005KT 08/M03 A301 RMK A01 T00801026  RH  047%=      5-min Rain = 0
KHO1 170846Z 19006KT 08/M03 A301 RMK A01 T00801026  RH  047%=      5-min Rain = 0
KHO1 170847Z 19006KT 08/M03 A301 RMK A01 T00791025  RH  048%=      5-min Rain = 0
KHO1 170848Z 20006KT 08/M03 A301 RMK A01 T00791025  RH  048%=      5-min Rain = 0
KHO1 170849Z 20006KT 08/M02 A301 RMK A01 T00791024  RH  048%=      5-min Rain = 0
KHO1 170850Z 20006KT 08/M02 A301 RMK A01 T00791023  RH  048%=      5-min Rain = 0
KHO1 170851Z 20006KT 08/M02 A301 RMK A01 T00791022  RH  049%=      5-min Rain = 0
KHO1 170852Z 20006KT 08/M02 A301 RMK A01 T00801021  RH  049%=      5-min Rain = 0
KHO1 170853Z 20006KT 08/M02 A301 RMK A01 T00801021  RH  049%=      5-min Rain = 0
KHO1 170854Z 20006KT 08/M02 A301 RMK A01 T00801020  RH  049%=      5-min Rain = 0
KHO1 170855Z 20007KT 08/M02 A301 RMK A01 T00811019  RH  049%=      5-min Rain = 0
KHO1 170856Z 19006KT 08/M02 A301 RMK A01 T00811019  RH  049%=      5-min Rain = 0
KHO1 170857Z 19006KT 08/M02 A301 RMK A01 T00811018  RH  049%=      5-min Rain = 0
KHO1 170858Z 19006KT 08/M02 A3009 RMK A01 T00821018  RH  049%=      5-min Rain = 0
KHO1 170859Z 19006KT 08/M02 A3009 RMK A01 T00821018  RH  049%=      5-min Rain = 0
KHO1 170900Z 20006KT 08/M02 A3009 RMK A01 T00821018  RH  050%=      5-min Rain = 0
KHO1 170901Z 19006KT 08/M02 A3009 RMK A01 T00811018  RH  049%=      5-min Rain = 0
KHO1 170902Z 19006KT 08/M02 A3009 RMK A01 T00811018  RH  050%=      5-min Rain = 0
KHO1 170903Z 19006KT 08/M02 A3009 RMK A01 T00811018  RH  050%=      5-min Rain = 0
KHO1 170904Z 19007KT 08/M02 A3009 RMK A01 T00811018  RH  050%=      5-min Rain = 0
KHO1 170905Z 19007KT 08/M02 A3009 RMK A01 T00811017  RH  050%=      5-min Rain = 0
KHO1 170906Z 19007KT 08/M02 A3009 RMK A01 T00811016  RH  050%=      5-min Rain = 0
KHO1 170907Z 19007KT 08/M02 A3009 RMK A01 T00811016  RH  050%=      5-min Rain = 0
KHO1 170908Z 19007KT 08/M02 A3009 RMK A01 T00821015  RH  050%=      5-min Rain = 0
KHO1 170909Z 19007KT 08/M01 A3009 RMK A01 T00821014  RH  051%=      5-min Rain = 0
KHO1 170910Z 19007KT 08/M01 A3009 RMK A01 T00831013  RH  051%=      5-min Rain = 0
KHO1 170911Z 19007KT 08/M01 A3009 RMK A01 T00841012  RH  051%=      5-min Rain = 0
KHO1 170912Z 19007KT 09/M01 A3009 RMK A01 T00851011  RH  051%=      5-min Rain = 0
KHO1 170913Z 19007KT 09/M01 A3009 RMK A01 T00861009  RH  051%=      5-min Rain = 0
KHO1 170914Z 20008KT 09/M01 A3009 RMK A01 T00881008  RH  051%=      5-min Rain = 0
KHO1 170915Z 19008KT 09/M01 A3009 RMK A01 T00901006  RH  051%=      5-min Rain = 0
KHO1 170916Z 19008KT 09/M01 A3009 RMK A01 T00921006  RH  051%=      5-min Rain = 0
KHO1 170917Z 19008KT 09/M01 A3009 RMK A01 T00931005  RH  050%=      5-min Rain = 0
KHO1 170918Z 19008KT 09/M00 A3009 RMK A01 T00941004  RH  050%=      5-min Rain = 0
KHO1 170919Z 19008KT 10/M00 A3009 RMK A01 T00951004  RH  050%=      5-min Rain = 0
KHO1 170920Z 19008KT 10/M00 A3009 RMK A01 T00961004  RH  050%=      5-min Rain = 0
KHO1 170921Z 19008KT 10/M00 A3008 RMK A01 T00961003  RH  050%=      5-min Rain = 0
KHO1 170922Z 19008KT 10/M00 A3009 RMK A01 T00961004  RH  050%=      5-min Rain = 0
KHO1 170923Z 20007KT 10/M00 A3008 RMK A01 T00961004  RH  050%=      5-min Rain = 0
KHO1 170924Z 20007KT 10/M01 A3009 RMK A01 T00961005  RH  050%=      5-min Rain = 0
KHO1 170925Z 19007KT 10/M00 A3008 RMK A01 T00951004  RH  050%=      5-min Rain = 0
KHO1 170926Z 19008KT 10/M00 A3008 RMK A01 T00961003  RH  050%=      5-min Rain = 0
KHO1 170927Z 19007KT 10/M00 A3008 RMK A01 T00961003  RH  050%=      5-min Rain = 0
KHO1 170928Z 19007KT 10/M00 A3008 RMK A01 T00961003  RH  050%=      5-min Rain = 0
KHO1 170929Z 19007KT 10/M00 A3008 RMK A01 T00961003  RH  050%=      5-min Rain = 0
KHO1 170930Z 20007KT 10/M00 A3008 RMK A01 T00951003  RH  050%=      5-min Rain = 0
KHO1 170931Z 20007KT 10/M00 A3008 RMK A01 T00951002  RH  051%=      5-min Rain = 0
KHO1 170932Z 20007KT 10/M00 A3008 RMK A01 T00951002  RH  051%=      5-min Rain = 0
KHO1 170933Z 20007KT 10/M00 A3008 RMK A01 T00951002  RH  051%=      5-min Rain = 0
KHO1 170934Z 20007KT 10/M00 A3008 RMK A01 T00951002  RH  051%=      5-min Rain = 0
KHO1 170935Z 20007KT 10/M00 A3008 RMK A01 T00951002  RH  051%=      5-min Rain = 0
KHO1 170936Z 20008KT 10/M00 A3008 RMK A01 T00951002  RH  051%=      5-min Rain = 0
KHO1 170937Z 20007KT 10/M00 A3008 RMK A01 T00951002  RH  051%=      5-min Rain = 0
KHO1 170938Z 20009KT 10/M00 A3008 RMK A01 T00951001  RH  051%=      5-min Rain = 0
KHO1 170939Z 20008KT 10/M00 A3008 RMK A01 T00951001  RH  051%=      5-min Rain = 0
KHO1 170940Z 20009KT 10/00 A3008 RMK A01 T00950000  RH  052%=      5-min Rain = 0
KHO1 170941Z 20009KT 10/00 A3008 RMK A01 T00960001  RH  052%=      5-min Rain = 0
KHO1 170942Z 20009KT 10/00 A3008 RMK A01 T009500-0  RH  051%=      5-min Rain = 0
KHO1 170943Z 20009KT 10/00 A3008 RMK A01 T00950000  RH  052%=      5-min Rain = 0
KHO1 170944Z 20009KT 10/00 A3008 RMK A01 T00950001  RH  052%=      5-min Rain = 0
KHO1 170945Z 20010KT 10/00 A3008 RMK A01 T00950001  RH  052%=      5-min Rain = 0
KHO1 170946Z 20008KT 10/00 A3008 RMK A01 T00960001  RH  052%=      5-min Rain = 0
KHO1 170947Z 20009KT 10/00 A3008 RMK A01 T00950002  RH  052%=      5-min Rain = 0
KHO1 170948Z 20010KT 10/00 A3008 RMK A01 T00960003  RH  052%=      5-min Rain = 0
KHO1 170949Z 20008KT 10/00 A3008 RMK A01 T00960002  RH  052%=      5-min Rain = 0
KHO1 170950Z 20010KT 10/00 A3008 RMK A01 T00960003  RH  052%=      5-min Rain = 0
KHO1 170951Z 20010KT 10/00 A3008 RMK A01 T00960003  RH  052%=      5-min Rain = 0
KHO1 170952Z 20009KT 10/00 A3008 RMK A01 T00960003  RH  052%=      5-min Rain = 0
KHO1 170953Z 20010KT 10/00 A3007 RMK A01 T00960003  RH  053%=      5-min Rain = 0
KHO1 170954Z 20010KT 10/00 A3007 RMK A01 T00960004  RH  053%=      5-min Rain = 0
KHO1 170955Z 20010KT 10/00 A3007 RMK A01 T00960004  RH  053%=      5-min Rain = 0
KHO1 170956Z 20009KT 10/00 A3008 RMK A01 T00960004  RH  053%=      5-min Rain = 0
KHO1 170957Z 20010KT 10/01 A3007 RMK A01 T00960005  RH  053%=      5-min Rain = 0
KHO1 170958Z 20010KT 10/01 A3007 RMK A01 T00960005  RH  053%=      5-min Rain = 0
KHO1 170959Z 20009KT 10/01 A3007 RMK A01 T00960005  RH  053%=      5-min Rain = 0
KHO1 171000Z 20009KT 10/01 A3007 RMK A01 T00960006  RH  053%=      5-min Rain = 0
KHO1 171001Z 19010KT 10/01 A3007 RMK A01 T00960007  RH  054%=      5-min Rain = 0
KHO1 171002Z 19010KT 10/01 A3007 RMK A01 T00970007  RH  054%=      5-min Rain = 0
KHO1 171003Z 20009KT 10/01 A3007 RMK A01 T00970007  RH  054%=      5-min Rain = 0
KHO1 171004Z 19009KT 10/01 A3007 RMK A01 T00970008  RH  054%=      5-min Rain = 0
KHO1 171005Z 19008KT 10/01 A3007 RMK A01 T00960007  RH  054%=      5-min Rain = 0
KHO1 171006Z 19008KT 10/01 A3007 RMK A01 T00960007  RH  054%=      5-min Rain = 0
KHO1 171007Z 19010KT 10/01 A3007 RMK A01 T00960009  RH  054%=      5-min Rain = 0
KHO1 171008Z 19009KT 10/01 A3007 RMK A01 T00970009  RH  054%=      5-min Rain = 0
KHO1 171009Z 19009KT 10/01 A3007 RMK A01 T00970010  RH  054%=      5-min Rain = 0
KHO1 171010Z 20010KT 10/01 A3007 RMK A01 T00970010  RH  055%=      5-min Rain = 0
KHO1 171011Z 19009KT 10/01 A3007 RMK A01 T00980011  RH  055%=      5-min Rain = 0
KHO1 171012Z 19009KT 10/01 A3007 RMK A01 T00980010  RH  055%=      5-min Rain = 0
KHO1 171013Z 19009KT 10/01 A3007 RMK A01 T00980011  RH  055%=      5-min Rain = 0
KHO1 171014Z 19009KT 10/01 A3007 RMK A01 T00980011  RH  055%=      5-min Rain = 0
KHO1 171015Z 20009KT 10/01 A3007 RMK A01 T00980012  RH  055%=      5-min Rain = 0
KHO1 171016Z 20010KT 10/01 A3007 RMK A01 T00980012  RH  055%=      5-min Rain = 0
KHO1 171017Z 19010KT 10/01 A3007 RMK A01 T00980012  RH  055%=      5-min Rain = 0
KHO1 171018Z 19010KT 10/01 A3007 RMK A01 T00990013  RH  055%=      5-min Rain = 0
KHO1 171019Z 20009KT 10/01 A3007 RMK A01 T00990012  RH  055%=      5-min Rain = 0
KHO1 171020Z 19009KT 10/01 A3007 RMK A01 T00990013  RH  055%=      5-min Rain = 0
KHO1 171021Z 19010KT 10/01 A3007 RMK A01 T00990013  RH  055%=      5-min Rain = 0
KHO1 171022Z 19011KT 10/01 A3007 RMK A01 T00990013  RH  055%=      5-min Rain = 0
KHO1 171023Z 19010KT 10/01 A3007 RMK A01 T00990013  RH  055%=      5-min Rain = 0
KHO1 171024Z 20011KT 10/01 A3007 RMK A01 T00990014  RH  055%=      5-min Rain = 0
KHO1 171025Z 19010KT 10/01 A3007 RMK A01 T01000013  RH  055%=      5-min Rain = 0
KHO1 171026Z 19011KT 10/01 A3007 RMK A01 T01000014  RH  055%=      5-min Rain = 0
KHO1 171027Z 19012KT 10/01 A3007 RMK A01 T01010014  RH  055%=      5-min Rain = 0
KHO1 171028Z 19011KT 10/01 A3007 RMK A01 T01010014  RH  055%=      5-min Rain = 0
KHO1 171029Z 19011KT 10/02 A3007 RMK A01 T01010015  RH  055%=      5-min Rain = 0
KHO1 171030Z 20010KT 10/01 A3007 RMK A01 T01010014  RH  055%=      5-min Rain = 0
KHO1 171031Z 20010KT 10/01 A3007 RMK A01 T01010014  RH  055%=      5-min Rain = 0
KHO1 171032Z 20011KT 10/02 A3007 RMK A01 T01010015  RH  055%=      5-min Rain = 0
KHO1 171033Z 20009KT 10/01 A3007 RMK A01 T01010014  RH  055%=      5-min Rain = 0
KHO1 171034Z 20009KT 10/01 A3007 RMK A01 T01000014  RH  055%=      5-min Rain = 0
KHO1 171035Z 20008KT 10/01 A3007 RMK A01 T00990013  RH  055%=      5-min Rain = 0
KHO1 171036Z 20008KT 10/01 A3007 RMK A01 T00980013  RH  055%=      5-min Rain = 0
KHO1 171037Z 20008KT 10/01 A3007 RMK A01 T00980013  RH  056%=      5-min Rain = 0
KHO1 171038Z 20009KT 10/01 A3007 RMK A01 T00980014  RH  056%=      5-min Rain = 0
KHO1 171039Z 20009KT 10/02 A3007 RMK A01 T00980015  RH  056%=      5-min Rain = 0
KHO1 171040Z 20009KT 10/01 A3007 RMK A01 T00980014  RH  056%=      5-min Rain = 0
KHO1 171041Z 19008KT 10/01 A3006 RMK A01 T00970014  RH  056%=      5-min Rain = 0
KHO1 171042Z 19008KT 10/01 A3006 RMK A01 T00970014  RH  056%=      5-min Rain = 0
KHO1 171043Z 20009KT 10/01 A3007 RMK A01 T00970014  RH  056%=      5-min Rain = 0
KHO1 171044Z 20009KT 10/01 A3007 RMK A01 T00970014  RH  056%=      5-min Rain = 0
KHO1 171045Z 20009KT 10/01 A3007 RMK A01 T00960014  RH  057%=      5-min Rain = 0
KHO1 171046Z 20009KT 10/01 A3007 RMK A01 T00960014  RH  057%=      5-min Rain = 0
KHO1 171047Z 20008KT 10/01 A3007 RMK A01 T00960014  RH  057%=      5-min Rain = 0
KHO1 171048Z 20008KT 10/02 A3007 RMK A01 T00960015  RH  057%=      5-min Rain = 0
KHO1 171049Z 20008KT 10/02 A3007 RMK A01 T00960015  RH  057%=      5-min Rain = 0
KHO1 171050Z 20008KT 10/02 A3007 RMK A01 T00960015  RH  057%=      5-min Rain = 0
KHO1 171051Z 20008KT 10/02 A3007 RMK A01 T00960015  RH  057%=      5-min Rain = 0
KHO1 171052Z 20008KT 10/02 A3007 RMK A01 T00950015  RH  057%=      5-min Rain = 0
KHO1 171053Z 20008KT 10/01 A3007 RMK A01 T00950014  RH  057%=      5-min Rain = 0
KHO1 171054Z 20009KT 10/02 A3007 RMK A01 T00950015  RH  057%=      5-min Rain = 0
KHO1 171055Z 20009KT 10/02 A3007 RMK A01 T00950015  RH  057%=      5-min Rain = 0
KHO1 171056Z 20008KT 10/02 A3007 RMK A01 T00950015  RH  057%=      5-min Rain = 0
KHO1 171057Z 20008KT 10/02 A3007 RMK A01 T00950015  RH  057%=      5-min Rain = 0
KHO1 171058Z 20007KT 10/02 A3007 RMK A01 T00950015  RH  057%=      5-min Rain = 0
KHO1 171059Z 20007KT 09/02 A3007 RMK A01 T00940015  RH  057%=      5-min Rain = 0
KHO1 171100Z 20008KT 09/02 A3007 RMK A01 T00940015  RH  058%=      5-min Rain = 0
KHO1 171101Z 20008KT 09/02 A3007 RMK A01 T00940015  RH  058%=      5-min Rain = 0
KHO1 171102Z 20008KT 09/02 A3007 RMK A01 T00940015  RH  058%=      5-min Rain = 0
KHO1 171103Z 20007KT 09/02 A3007 RMK A01 T00930015  RH  058%=      5-min Rain = 0
KHO1 171104Z 20007KT 09/01 A3007 RMK A01 T00930014  RH  058%=      5-min Rain = 0
KHO1 171105Z 20006KT 09/01 A3007 RMK A01 T00920014  RH  058%=      5-min Rain = 0
KHO1 171106Z 21006KT 09/01 A3007 RMK A01 T00920014  RH  058%=      5-min Rain = 0
KHO1 171107Z 21006KT 09/01 A3007 RMK A01 T00910014  RH  058%=      5-min Rain = 0
KHO1 171108Z 21005KT 09/01 A3007 RMK A01 T00910013  RH  058%=      5-min Rain = 0
KHO1 171109Z 21005KT 09/01 A3007 RMK A01 T00900013  RH  058%=      5-min Rain = 0
KHO1 171110Z 22005KT 09/01 A3007 RMK A01 T00890013  RH  059%=      5-min Rain = 0
KHO1 171111Z 22005KT 09/01 A3007 RMK A01 T00890013  RH  059%=      5-min Rain = 0
KHO1 171112Z 22004KT 09/01 A3007 RMK A01 T00880012  RH  059%=      5-min Rain = 0
KHO1 171113Z 22005KT 09/01 A3007 RMK A01 T00870012  RH  059%=      5-min Rain = 0
KHO1 171114Z 22006KT 09/01 A3007 RMK A01 T00860012  RH  059%=      5-min Rain = 0
KHO1 171115Z 21006KT 09/01 A3007 RMK A01 T00860011  RH  059%=      5-min Rain = 0
KHO1 171116Z 21006KT 09/01 A3007 RMK A01 T00850011  RH  060%=      5-min Rain = 0
KHO1 171117Z 21006KT 08/01 A3007 RMK A01 T00840011  RH  060%=      5-min Rain = 0
KHO1 171118Z 21006KT 08/01 A3007 RMK A01 T00840010  RH  060%=      5-min Rain = 0
KHO1 171119Z 21006KT 08/01 A3007 RMK A01 T00830010  RH  060%=      5-min Rain = 0
KHO1 171120Z 21006KT 08/01 A3007 RMK A01 T00830010  RH  060%=      5-min Rain = 0
KHO1 171121Z 21006KT 08/01 A3007 RMK A01 T00820010  RH  060%=      5-min Rain = 0
KHO1 171122Z 21006KT 08/01 A3007 RMK A01 T00820010  RH  060%=      5-min Rain = 0
KHO1 171123Z 21006KT 08/01 A3007 RMK A01 T00810009  RH  061%=      5-min Rain = 0
KHO1 171124Z 20007KT 08/01 A3007 RMK A01 T00810009  RH  061%=      5-min Rain = 0
KHO1 171125Z 21007KT 08/01 A3007 RMK A01 T00800010  RH  061%=      5-min Rain = 0
KHO1 171126Z 21007KT 08/01 A3007 RMK A01 T00800010  RH  061%=      5-min Rain = 0
KHO1 171127Z 21007KT 08/01 A3007 RMK A01 T00800010  RH  061%=      5-min Rain = 0
KHO1 171128Z 20007KT 08/01 A3007 RMK A01 T00800010  RH  061%=      5-min Rain = 0
KHO1 171129Z 20007KT 08/01 A3007 RMK A01 T00800010  RH  061%=      5-min Rain = 0
KHO1 171130Z 20006KT 08/01 A3007 RMK A01 T00800011  RH  061%=      5-min Rain = 0
KHO1 171131Z 20007KT 08/01 A3007 RMK A01 T00800011  RH  061%=      5-min Rain = 0
KHO1 171132Z 20006KT 08/01 A3007 RMK A01 T00810011  RH  061%=      5-min Rain = 0
KHO1 171133Z 20007KT 08/01 A3007 RMK A01 T00810012  RH  062%=      5-min Rain = 0
KHO1 171134Z 20006KT 08/01 A3007 RMK A01 T00820012  RH  061%=      5-min Rain = 0
KHO1 171135Z 20007KT 08/01 A3007 RMK A01 T00820012  RH  061%=      5-min Rain = 0
KHO1 171136Z 20007KT 08/01 A3007 RMK A01 T00820012  RH  061%=      5-min Rain = 0
KHO1 171137Z 20007KT 08/01 A3007 RMK A01 T00820012  RH  061%=      5-min Rain = 0
KHO1 171138Z 20007KT 08/01 A3007 RMK A01 T00820012  RH  061%=      5-min Rain = 0
KHO1 171139Z 20006KT 08/01 A3007 RMK A01 T00820012  RH  061%=      5-min Rain = 0
KHO1 171140Z 20006KT 08/01 A3007 RMK A01 T00820012  RH  061%=      5-min Rain = 0
KHO1 171141Z 20007KT 08/01 A3007 RMK A01 T00820012  RH  061%=      5-min Rain = 0
KHO1 171142Z 20007KT 08/01 A3007 RMK A01 T00820012  RH  061%=      5-min Rain = 0
KHO1 171143Z 20007KT 08/01 A3007 RMK A01 T00820012  RH  062%=      5-min Rain = 0
KHO1 171144Z 20007KT 08/01 A3007 RMK A01 T00820012  RH  061%=      5-min Rain = 0
KHO1 171145Z 20007KT 08/01 A3007 RMK A01 T00810012  RH  061%=      5-min Rain = 0
KHO1 171146Z 20007KT 08/01 A3006 RMK A01 T00810012  RH  062%=      5-min Rain = 0
KHO1 171147Z 20007KT 08/01 A3006 RMK A01 T00810012  RH  062%=      5-min Rain = 0
KHO1 171148Z 20006KT 08/01 A3007 RMK A01 T00810012  RH  062%=      5-min Rain = 0
KHO1 171149Z 20006KT 08/01 A3007 RMK A01 T00810012  RH  062%=      5-min Rain = 0
KHO1 171150Z 20007KT 08/01 A3006 RMK A01 T00810012  RH  062%=      5-min Rain = 0
KHO1 171151Z 20007KT 08/01 A3007 RMK A01 T00810013  RH  062%=      5-min Rain = 0
KHO1 171152Z 20007KT 08/01 A3007 RMK A01 T00810013  RH  062%=      5-min Rain = 0
KHO1 171153Z 20005KT 08/01 A3007 RMK A01 T00810012  RH  062%=      5-min Rain = 0
KHO1 171154Z 20005KT 08/01 A3007 RMK A01 T00810012  RH  062%=      5-min Rain = 0
KHO1 171155Z 20006KT 08/01 A3007 RMK A01 T00800012  RH  062%=      5-min Rain = 0
KHO1 171156Z 20006KT 08/01 A3007 RMK A01 T00800012  RH  062%=      5-min Rain = 0
KHO1 171157Z 20006KT 08/01 A3007 RMK A01 T00800012  RH  062%=      5-min Rain = 0
KHO1 171158Z 20006KT 08/01 A3007 RMK A01 T00790011  RH  062%=      5-min Rain = 0
KHO1 171159Z 20006KT 08/01 A3007 RMK A01 T00790012  RH  062%=      5-min Rain = 0
KHO1 171200Z 20006KT 08/01 A3007 RMK A01 T00790012  RH  063%=      5-min Rain = 0
KHO1 171201Z 20006KT 08/01 A3007 RMK A01 T00780011  RH  063%=      5-min Rain = 0
KHO1 171202Z 20006KT 08/01 A3007 RMK A01 T00780012  RH  063%=      5-min Rain = 0
KHO1 171203Z 19006KT 08/01 A3007 RMK A01 T00780012  RH  063%=      5-min Rain = 0
KHO1 171204Z 20005KT 08/01 A3007 RMK A01 T00780012  RH  063%=      5-min Rain = 0
KHO1 171205Z 20005KT 08/01 A3007 RMK A01 T00780011  RH  063%=      5-min Rain = 0
KHO1 171206Z 20005KT 08/01 A3007 RMK A01 T00770011  RH  063%=      5-min Rain = 0
KHO1 171207Z 20006KT 08/01 A3007 RMK A01 T00770011  RH  063%=      5-min Rain = 0
KHO1 171208Z 20006KT 08/01 A3007 RMK A01 T00770012  RH  064%=      5-min Rain = 0
KHO1 171209Z 20006KT 08/01 A3007 RMK A01 T00770012  RH  064%=      5-min Rain = 0
KHO1 171210Z 19006KT 08/01 A3007 RMK A01 T00770012  RH  063%=      5-min Rain = 0
KHO1 171211Z 19006KT 08/01 A3007 RMK A01 T00760012  RH  064%=      5-min Rain = 0
KHO1 171212Z 19006KT 08/01 A3007 RMK A01 T00760012  RH  064%=      5-min Rain = 0
KHO1 171213Z 19007KT 08/01 A3007 RMK A01 T00760012  RH  064%=      5-min Rain = 0
KHO1 171214Z 20007KT 08/01 A3007 RMK A01 T00760012  RH  064%=      5-min Rain = 0
KHO1 171215Z 20007KT 08/01 A3007 RMK A01 T00760013  RH  064%=      5-min Rain = 0
KHO1 171216Z 20007KT 08/01 A3007 RMK A01 T00770013  RH  064%=      5-min Rain = 0
KHO1 171217Z 20007KT 08/01 A3007 RMK A01 T00760012  RH  064%=      5-min Rain = 0
KHO1 171218Z 20007KT 08/01 A3007 RMK A01 T00760013  RH  064%=      5-min Rain = 0
KHO1 171219Z 20007KT 08/01 A3007 RMK A01 T00760013  RH  064%=      5-min Rain = 0
KHO1 171220Z 20007KT 08/01 A3007 RMK A01 T00760013  RH  064%=      5-min Rain = 0
KHO1 171221Z 20007KT 08/01 A3006 RMK A01 T00760014  RH  065%=      5-min Rain = 0
KHO1 171222Z 20008KT 08/01 A3006 RMK A01 T00760014  RH  065%=      5-min Rain = 0
KHO1 171223Z 20008KT 08/02 A3006 RMK A01 T00770015  RH  065%=      5-min Rain = 0
KHO1 171224Z 20007KT 08/01 A3006 RMK A01 T00770014  RH  065%=      5-min Rain = 0
KHO1 171225Z 20008KT 08/02 A3006 RMK A01 T00770015  RH  065%=      5-min Rain = 0
KHO1 171226Z 20008KT 08/02 A3006 RMK A01 T00770015  RH  065%=      5-min Rain = 0
KHO1 171227Z 20008KT 08/02 A3006 RMK A01 T00780016  RH  065%=      5-min Rain = 0
KHO1 171228Z 20008KT 08/02 A3006 RMK A01 T00780016  RH  065%=      5-min Rain = 0
KHO1 171229Z 20008KT 08/02 A3006 RMK A01 T00780016  RH  065%=      5-min Rain = 0
KHO1 171230Z 20008KT 08/02 A3006 RMK A01 T00780016  RH  065%=      5-min Rain = 0
KHO1 171231Z 20008KT 08/02 A3006 RMK A01 T00780016  RH  065%=      5-min Rain = 0
KHO1 171232Z 20008KT 08/02 A3006 RMK A01 T00780016  RH  065%=      5-min Rain = 0
KHO1 171233Z 20007KT 08/02 A3006 RMK A01 T00780016  RH  065%=      5-min Rain = 0
KHO1 171234Z 20007KT 08/02 A3006 RMK A01 T00780016  RH  065%=      5-min Rain = 0
KHO1 171235Z 20008KT 08/02 A3006 RMK A01 T00780016  RH  065%=      5-min Rain = 0
KHO1 171236Z 20008KT 08/02 A3006 RMK A01 T00780017  RH  065%=      5-min Rain = 0
KHO1 171237Z 20008KT 08/02 A3006 RMK A01 T00790016  RH  065%=      5-min Rain = 0
KHO1 171238Z 20008KT 08/02 A3006 RMK A01 T00780016  RH  065%=      5-min Rain = 0
KHO1 171239Z 21008KT 08/02 A3006 RMK A01 T00780016  RH  065%=      5-min Rain = 0
KHO1 171240Z 20009KT 08/02 A3006 RMK A01 T00780017  RH  065%=      5-min Rain = 0
KHO1 171241Z 20008KT 08/02 A3006 RMK A01 T00780017  RH  065%=      5-min Rain = 0
KHO1 171242Z 20008KT 08/02 A3006 RMK A01 T00780017  RH  065%=      5-min Rain = 0
KHO1 171243Z 20008KT 08/02 A3006 RMK A01 T00780017  RH  065%=      5-min Rain = 0
KHO1 171244Z 21008KT 08/02 A3006 RMK A01 T00780016  RH  065%=      5-min Rain = 0
KHO1 171245Z 20008KT 08/02 A3006 RMK A01 T00780017  RH  065%=      5-min Rain = 0
KHO1 171246Z 20008KT 08/02 A3006 RMK A01 T00780017  RH  065%=      5-min Rain = 0
KHO1 171247Z 21007KT 08/02 A3006 RMK A01 T00790017  RH  065%=      5-min Rain = 0
KHO1 171248Z 21007KT 08/02 A3006 RMK A01 T00780017  RH  065%=      5-min Rain = 0
KHO1 171249Z 21007KT 08/02 A3006 RMK A01 T00780016  RH  065%=      5-min Rain = 0
KHO1 171250Z 21007KT 08/02 A3006 RMK A01 T00780017  RH  065%=      5-min Rain = 0
KHO1 171251Z 21007KT 08/02 A3006 RMK A01 T00780017  RH  065%=      5-min Rain = 0
KHO1 171252Z 21007KT 08/02 A3006 RMK A01 T00780017  RH  065%=      5-min Rain = 0
KHO1 171253Z 21007KT 08/02 A3006 RMK A01 T00780016  RH  065%=      5-min Rain = 0
KHO1 171254Z 21007KT 08/02 A3006 RMK A01 T00780017  RH  065%=      5-min Rain = 0
KHO1 171255Z 21006KT 08/02 A3006 RMK A01 T00780016  RH  065%=      5-min Rain = 0
KHO1 171256Z 21006KT 08/02 A3006 RMK A01 T00770016  RH  065%=      5-min Rain = 0
KHO1 171257Z 21006KT 08/02 A3006 RMK A01 T00770016  RH  065%=      5-min Rain = 0
KHO1 171258Z 21006KT 08/02 A3006 RMK A01 T00770016  RH  065%=      5-min Rain = 0
KHO1 171259Z 21005KT 08/02 A3006 RMK A01 T00770016  RH  065%=      5-min Rain = 0
KHO1 171300Z 21005KT 08/02 A3006 RMK A01 T00760016  RH  065%=      5-min Rain = 0
KHO1 171301Z 21005KT 08/02 A3006 RMK A01 T00760015  RH  065%=      5-min Rain = 0
KHO1 171302Z 20005KT 08/02 A3006 RMK A01 T00760016  RH  066%=      5-min Rain = 0
KHO1 171303Z 21005KT 08/02 A3006 RMK A01 T00760015  RH  066%=      5-min Rain = 0
KHO1 171304Z 21004KT 08/02 A3006 RMK A01 T00750015  RH  066%=      5-min Rain = 0
KHO1 171305Z 21005KT 08/02 A3006 RMK A01 T00750015  RH  066%=      5-min Rain = 0
KHO1 171306Z 21004KT 08/02 A3007 RMK A01 T00750015  RH  066%=      5-min Rain = 0
KHO1 171307Z 21004KT 08/02 A3006 RMK A01 T00750015  RH  066%=      5-min Rain = 0
KHO1 171308Z 21004KT 08/02 A3006 RMK A01 T00750015  RH  066%=      5-min Rain = 0
KHO1 171309Z 22004KT 08/02 A3006 RMK A01 T00750015  RH  066%=      5-min Rain = 0
KHO1 171310Z 22004KT 07/02 A3006 RMK A01 T00740015  RH  066%=      5-min Rain = 0
KHO1 171311Z 22003KT 07/01 A3006 RMK A01 T00740014  RH  066%=      5-min Rain = 0
KHO1 171312Z 23003KT 07/01 A3006 RMK A01 T00740014  RH  066%=      5-min Rain = 0
KHO1 171313Z 23003KT 07/01 A3006 RMK A01 T00740014  RH  066%=      5-min Rain = 0
KHO1 171314Z 22004KT 07/01 A3006 RMK A01 T00740014  RH  066%=      5-min Rain = 0
KHO1 171315Z 21003KT 07/01 A3006 RMK A01 T00740014  RH  066%=      5-min Rain = 0
KHO1 171316Z 22004KT 07/02 A3006 RMK A01 T00740015  RH  066%=      5-min Rain = 0
KHO1 171317Z 22004KT 07/02 A3006 RMK A01 T00740015  RH  066%=      5-min Rain = 0
KHO1 171318Z 21004KT 07/01 A3006 RMK A01 T00740014  RH  066%=      5-min Rain = 0
KHO1 171319Z 21004KT 07/01 A3006 RMK A01 T00740014  RH  066%=      5-min Rain = 0
KHO1 171320Z 21004KT 07/01 A3006 RMK A01 T00740014  RH  066%=      5-min Rain = 0
KHO1 171321Z 21004KT 07/02 A3006 RMK A01 T00740015  RH  066%=      5-min Rain = 0
KHO1 171322Z 22004KT 07/01 A3006 RMK A01 T00740014  RH  066%=      5-min Rain = 0
KHO1 171323Z 21004KT 07/01 A3006 RMK A01 T00740014  RH  066%=      5-min Rain = 0
KHO1 171324Z 21004KT 07/01 A3006 RMK A01 T00740014  RH  066%=      5-min Rain = 0
KHO1 171325Z 21004KT 08/01 A3006 RMK A01 T00750014  RH  066%=      5-min Rain = 0
KHO1 171326Z 22004KT 08/02 A3006 RMK A01 T00750015  RH  066%=      5-min Rain = 0
KHO1 171327Z 21005KT 08/02 A3006 RMK A01 T00750015  RH  066%=      5-min Rain = 0
KHO1 171328Z 21005KT 08/02 A3006 RMK A01 T00760015  RH  065%=      5-min Rain = 0
KHO1 171329Z 21005KT 08/02 A3006 RMK A01 T00770016  RH  065%=      5-min Rain = 0
KHO1 171330Z 21006KT 08/02 A3006 RMK A01 T00770016  RH  065%=      5-min Rain = 0
KHO1 171331Z 21005KT 08/02 A3006 RMK A01 T00780016  RH  065%=      5-min Rain = 0
KHO1 171332Z 22005KT 08/02 A3006 RMK A01 T00790016  RH  065%=      5-min Rain = 0
KHO1 171333Z 21005KT 08/02 A3006 RMK A01 T00790017  RH  065%=      5-min Rain = 0
KHO1 171334Z 21005KT 08/02 A3006 RMK A01 T00800017  RH  064%=      5-min Rain = 0
KHO1 171335Z 21005KT 08/02 A3006 RMK A01 T00810017  RH  064%=      5-min Rain = 0
KHO1 171336Z 21006KT 08/02 A3006 RMK A01 T00810017  RH  064%=      5-min Rain = 0
KHO1 171337Z 21005KT 08/02 A3006 RMK A01 T00820017  RH  064%=      5-min Rain = 0
KHO1 171338Z 21006KT 08/02 A3006 RMK A01 T00830018  RH  063%=      5-min Rain = 0
KHO1 171339Z 21005KT 08/02 A3006 RMK A01 T00840018  RH  063%=      5-min Rain = 0
KHO1 171340Z 21005KT 08/02 A3006 RMK A01 T00840018  RH  063%=      5-min Rain = 0
KHO1 171341Z 21005KT 09/02 A3006 RMK A01 T00850018  RH  063%=      5-min Rain = 0
KHO1 171342Z 21006KT 09/02 A3006 RMK A01 T00850018  RH  063%=      5-min Rain = 0
KHO1 171343Z 21005KT 09/02 A3006 RMK A01 T00860018  RH  063%=      5-min Rain = 0
KHO1 171344Z 21005KT 09/02 A3006 RMK A01 T00870019  RH  062%=      5-min Rain = 0
KHO1 171345Z 21006KT 09/02 A3007 RMK A01 T00870019  RH  062%=      5-min Rain = 0
KHO1 171346Z 21006KT 09/02 A3007 RMK A01 T00880019  RH  062%=      5-min Rain = 0
KHO1 171347Z 22006KT 09/02 A3007 RMK A01 T00890020  RH  062%=      5-min Rain = 0
KHO1 171348Z 21005KT 09/02 A3007 RMK A01 T00890020  RH  062%=      5-min Rain = 0
KHO1 171349Z 22005KT 09/02 A3007 RMK A01 T00900020  RH  062%=      5-min Rain = 0
KHO1 171350Z 21006KT 09/02 A3007 RMK A01 T00910021  RH  061%=      5-min Rain = 0
KHO1 171351Z 21006KT 09/02 A3007 RMK A01 T00920021  RH  061%=      5-min Rain = 0
KHO1 171352Z 22005KT 09/02 A3007 RMK A01 T00930021  RH  061%=      5-min Rain = 0
KHO1 171353Z 21006KT 09/02 A3007 RMK A01 T00940022  RH  060%=      5-min Rain = 0
KHO1 171354Z 21005KT 10/02 A3007 RMK A01 T00950022  RH  060%=      5-min Rain = 0
KHO1 171355Z 21006KT 10/02 A3007 RMK A01 T00970022  RH  060%=      5-min Rain = 0
KHO1 171356Z 21006KT 10/02 A3007 RMK A01 T00980022  RH  060%=      5-min Rain = 0
KHO1 171357Z 22006KT 10/02 A3007 RMK A01 T00980023  RH  059%=      5-min Rain = 0
KHO1 171358Z 21006KT 10/02 A3007 RMK A01 T00990023  RH  059%=      5-min Rain = 0
KHO1 171359Z 21006KT 10/02 A3007 RMK A01 T01000024  RH  059%=      5-min Rain = 0
KHO1 171400Z 21007KT 10/02 A3007 RMK A01 T01020024  RH  058%=      5-min Rain = 0
KHO1 171401Z 20006KT 10/02 A3007 RMK A01 T01030024  RH  058%=      5-min Rain = 0
KHO1 171402Z 21006KT 10/02 A3007 RMK A01 T01040024  RH  058%=      5-min Rain = 0
KHO1 171403Z 21007KT 11/03 A3007 RMK A01 T01050025  RH  058%=      5-min Rain = 0
KHO1 171404Z 21007KT 11/03 A3007 RMK A01 T01050025  RH  057%=      5-min Rain = 0
KHO1 171405Z 20008KT 11/03 A3007 RMK A01 T01060025  RH  057%=      5-min Rain = 0
KHO1 171406Z 21007KT 11/03 A3007 RMK A01 T01060025  RH  057%=      5-min Rain = 0
KHO1 171407Z 20007KT 11/03 A3007 RMK A01 T01070025  RH  057%=      5-min Rain = 0
KHO1 171408Z 21006KT 11/03 A3007 RMK A01 T01080026  RH  057%=      5-min Rain = 0
KHO1 171409Z 21008KT 11/03 A3007 RMK A01 T01090025  RH  056%=      5-min Rain = 0
KHO1 171410Z 21009KT 11/03 A3007 RMK A01 T01090025  RH  056%=      5-min Rain = 0
KHO1 171411Z 21008KT 11/03 A3007 RMK A01 T01090025  RH  056%=      5-min Rain = 0
KHO1 171412Z 20009KT 11/03 A3007 RMK A01 T01090026  RH  056%=      5-min Rain = 0
KHO1 171413Z 20008KT 11/03 A3007 RMK A01 T01100026  RH  056%=      5-min Rain = 0
KHO1 171414Z 20007KT 11/03 A3007 RMK A01 T01110026  RH  056%=      5-min Rain = 0
KHO1 171415Z 21008KT 11/03 A3007 RMK A01 T01130026  RH  055%=      5-min Rain = 0
KHO1 171416Z 21007KT 11/03 A3007 RMK A01 T01130026  RH  055%=      5-min Rain = 0
KHO1 171417Z 21008KT 11/03 A3007 RMK A01 T01130026  RH  055%=      5-min Rain = 0
KHO1 171418Z 21009KT 11/03 A3007 RMK A01 T01140026  RH  055%=      5-min Rain = 0
KHO1 171419Z 21008KT 12/03 A3007 RMK A01 T01150027  RH  055%=      5-min Rain = 0
KHO1 171420Z 21009KT 12/03 A3007 RMK A01 T01160027  RH  054%=      5-min Rain = 0
KHO1 171421Z 21009KT 12/03 A3007 RMK A01 T01160027  RH  054%=      5-min Rain = 0
KHO1 171422Z 21009KT 12/03 A3007 RMK A01 T01170027  RH  054%=      5-min Rain = 0
KHO1 171423Z 21010KT 12/03 A3007 RMK A01 T01180027  RH  054%=      5-min Rain = 0
KHO1 171424Z 21009KT 12/03 A3008 RMK A01 T01190027  RH  053%=      5-min Rain = 0
KHO1 171425Z 21009KT 12/03 A3008 RMK A01 T01200027  RH  053%=      5-min Rain = 0
KHO1 171426Z 21007KT 12/03 A3008 RMK A01 T01210028  RH  053%=      5-min Rain = 0
KHO1 171427Z 21007KT 12/03 A3008 RMK A01 T01220028  RH  052%=      5-min Rain = 0
KHO1 171428Z 20006KT 12/03 A3008 RMK A01 T01230028  RH  052%=      5-min Rain = 0
KHO1 171429Z 20008KT 12/03 A3008 RMK A01 T01240028  RH  052%=      5-min Rain = 0
KHO1 171430Z 21009KT 13/03 A3008 RMK A01 T01250028  RH  051%=      5-min Rain = 0
KHO1 171431Z 20011KT 13/03 A3008 RMK A01 T01250027  RH  051%=      5-min Rain = 0
KHO1 171432Z 21011KT 13/03 A3008 RMK A01 T01250027  RH  051%=      5-min Rain = 0
KHO1 171433Z 21010KT 13/03 A3008 RMK A01 T01250028  RH  051%=      5-min Rain = 0
KHO1 171434Z 21009KT 13/03 A3008 RMK A01 T01260028  RH  051%=      5-min Rain = 0
KHO1 171435Z 21009KT 13/03 A3008 RMK A01 T01270028  RH  051%=      5-min Rain = 0
KHO1 171436Z 21009KT 13/03 A3008 RMK A01 T01280028  RH  051%=      5-min Rain = 0
KHO1 171437Z 21010KT 13/03 A3008 RMK A01 T01290028  RH  050%=      5-min Rain = 0
KHO1 171438Z 21010KT 13/03 A3008 RMK A01 T01300028  RH  050%=      5-min Rain = 0
KHO1 171439Z 21010KT 13/03 A3008 RMK A01 T01300028  RH  050%=      5-min Rain = 0
KHO1 171440Z 21009KT 13/03 A3008 RMK A01 T01310028  RH  050%=      5-min Rain = 0
KHO1 171441Z 21012KT 13/03 A3008 RMK A01 T01320028  RH  049%=      5-min Rain = 0
KHO1 171442Z 21010KT 13/03 A3008 RMK A01 T01320027  RH  049%=      5-min Rain = 0
KHO1 171443Z 21010KT 13/03 A3008 RMK A01 T01320027  RH  049%=      5-min Rain = 0
KHO1 171444Z 21010KT 13/03 A3008 RMK A01 T01330028  RH  049%=      5-min Rain = 0
KHO1 171445Z 21010KT 13/03 A3008 RMK A01 T01340027  RH  048%=      5-min Rain = 0
KHO1 171446Z 21009KT 14/03 A3008 RMK A01 T01350028  RH  048%=      5-min Rain = 0
KHO1 171447Z 22009KT 14/03 A3008 RMK A01 T01360027  RH  048%=      5-min Rain = 0
KHO1 171448Z 21007KT 14/03 A3008 RMK A01 T01370028  RH  048%=      5-min Rain = 0
KHO1 171449Z 20009KT 14/03 A3008 RMK A01 T01390027  RH  047%=      5-min Rain = 0
KHO1 171450Z 21010KT 14/03 A3008 RMK A01 T01390026  RH  046%=      5-min Rain = 0
KHO1 171451Z 21011KT 14/03 A3008 RMK A01 T01390025  RH  046%=      5-min Rain = 0
KHO1 171452Z 21010KT 14/03 A3008 RMK A01 T01380026  RH  046%=      5-min Rain = 0
KHO1 171453Z 21009KT 14/03 A3008 RMK A01 T01400026  RH  046%=      5-min Rain = 0
KHO1 171454Z 21010KT 14/03 A3008 RMK A01 T01400026  RH  046%=      5-min Rain = 0
KHO1 171455Z 21009KT 14/03 A3008 RMK A01 T01400025  RH  046%=      5-min Rain = 0
KHO1 171456Z 22009KT 14/03 A3008 RMK A01 T01410025  RH  046%=      5-min Rain = 0
KHO1 171457Z 22009KT 14/03 A3008 RMK A01 T01420025  RH  045%=      5-min Rain = 0
KHO1 171458Z 22007KT 14/03 A3008 RMK A01 T01420026  RH  045%=      5-min Rain = 0
KHO1 171459Z 23007KT 14/03 A3008 RMK A01 T01440026  RH  045%=      5-min Rain = 0
KHO1 171500Z 23008KT 15/03 A3008 RMK A01 T01460025  RH  044%=      5-min Rain = 0
KHO1 171501Z 23009KT 15/03 A3008 RMK A01 T01460025  RH  044%=      5-min Rain = 0
KHO1 171502Z 21009KT 15/02 A3008 RMK A01 T01470024  RH  044%=      5-min Rain = 0
KHO1 171503Z 22007KT 15/02 A3008 RMK A01 T01480024  RH  043%=      5-min Rain = 0
KHO1 171504Z 22010KT 15/02 A3008 RMK A01 T01500024  RH  043%=      5-min Rain = 0
KHO1 171505Z 22008KT 15/02 A3008 RMK A01 T01500022  RH  042%=      5-min Rain = 0
KHO1 171506Z 22007KT 15/02 A3008 RMK A01 T01510024  RH  042%=      5-min Rain = 0
KHO1 171507Z 22007KT 15/02 A3008 RMK A01 T01540024  RH  042%=      5-min Rain = 0
KHO1 171508Z 21009KT 16/02 A3008 RMK A01 T01560022  RH  041%=      5-min Rain = 0
KHO1 171509Z 22009KT 16/02 A3008 RMK A01 T01560021  RH  040%=      5-min Rain = 0
KHO1 171510Z 23009KT 16/02 A3008 RMK A01 T01560021  RH  040%=      5-min Rain = 0
KHO1 171511Z 22009KT 16/02 A3008 RMK A01 T01570021  RH  040%=      5-min Rain = 0
KHO1 171512Z 22006KT 16/02 A3008 RMK A01 T01570022  RH  040%=      5-min Rain = 0
KHO1 171513Z 21007KT 16/02 A3008 RMK A01 T01600022  RH  039%=      5-min Rain = 0
KHO1 171514Z 21009KT 16/02 A3008 RMK A01 T01610021  RH  039%=      5-min Rain = 0
KHO1 171515Z 21008KT 16/02 A3008 RMK A01 T01610020  RH  039%=      5-min Rain = 0
KHO1 171516Z 22006KT 16/02 A3008 RMK A01 T01620021  RH  039%=      5-min Rain = 0
KHO1 171517Z 22007KT 16/02 A3009 RMK A01 T01630021  RH  038%=      5-min Rain = 0
KHO1 171518Z 23007KT 17/02 A3009 RMK A01 T01650020  RH  038%=      5-min Rain = 0
KHO1 171519Z 23007KT 17/02 A3009 RMK A01 T01660019  RH  037%=      5-min Rain = 0
KHO1 171520Z 23007KT 17/02 A3009 RMK A01 T01660020  RH  037%=      5-min Rain = 0
KHO1 171521Z 23007KT 17/02 A3009 RMK A01 T01670019  RH  037%=      5-min Rain = 0
KHO1 171522Z 22008KT 17/02 A3009 RMK A01 T01670018  RH  037%=      5-min Rain = 0
KHO1 171523Z 22007KT 17/02 A3009 RMK A01 T01670018  RH  037%=      5-min Rain = 0
KHO1 171524Z 23008KT 17/02 A3009 RMK A01 T01670018  RH  037%=      5-min Rain = 0
KHO1 171525Z 22007KT 17/02 A3009 RMK A01 T01680018  RH  036%=      5-min Rain = 0
KHO1 171526Z 23009KT 17/02 A3009 RMK A01 T01690018  RH  036%=      5-min Rain = 0
KHO1 171527Z 23007KT 17/02 A3009 RMK A01 T01700017  RH  036%=      5-min Rain = 0
KHO1 171528Z 23007KT 17/02 A3009 RMK A01 T01710018  RH  036%=      5-min Rain = 0
KHO1 171529Z 23007KT 17/02 A3009 RMK A01 T01730018  RH  035%=      5-min Rain = 0
KHO1 171530Z 23008KT 17/02 A3009 RMK A01 T01740016  RH  034%=      5-min Rain = 0
KHO1 171531Z 23007KT 17/02 A3009 RMK A01 T01740017  RH  035%=      5-min Rain = 0
KHO1 171532Z 22007KT 18/02 A3009 RMK A01 T01750018  RH  035%=      5-min Rain = 0
KHO1 171533Z 23009KT 18/02 A3009 RMK A01 T01780016  RH  034%=      5-min Rain = 0
KHO1 171534Z 22007KT 18/02 A3008 RMK A01 T01790017  RH  034%=      5-min Rain = 0
KHO1 171535Z 22010KT 18/02 A3008 RMK A01 T01800016  RH  033%=      5-min Rain = 0
KHO1 171536Z 22008KT 18/02 A3008 RMK A01 T01790016  RH  033%=      5-min Rain = 0
KHO1 171537Z 22007KT 18/02 A3008 RMK A01 T01790017  RH  034%=      5-min Rain = 0
KHO1 171538Z 22009KT 18/02 A3008 RMK A01 T01830017  RH  033%=      5-min Rain = 0
KHO1 171539Z 22009KT 19/02 A3008 RMK A01 T01850016  RH  032%=      5-min Rain = 0
KHO1 171540Z 23011KT 19/02 A3008 RMK A01 T01860016  RH  032%=      5-min Rain = 0
KHO1 171541Z 23010KT 19/02 A3008 RMK A01 T01860015  RH  032%=      5-min Rain = 0
KHO1 171542Z 22008KT 19/02 A3008 RMK A01 T01870016  RH  032%=      5-min Rain = 0
KHO1 171543Z 22009KT 19/02 A3008 RMK A01 T01890017  RH  032%=      5-min Rain = 0
KHO1 171544Z 22010KT 19/02 A3008 RMK A01 T01900016  RH  031%=      5-min Rain = 0
KHO1 171545Z 22010KT 19/02 A3008 RMK A01 T01900016  RH  031%=      5-min Rain = 0
KHO1 171546Z 21012KT 19/02 A3008 RMK A01 T01900015  RH  031%=      5-min Rain = 0
KHO1 171547Z 21012KT 19/02 A3008 RMK A01 T01890015  RH  031%=      5-min Rain = 0
KHO1 171548Z 22011KT 19/02 A3008 RMK A01 T01900016  RH  031%=      5-min Rain = 0
KHO1 171549Z 21011KT 19/02 A3008 RMK A01 T01900016  RH  031%=      5-min Rain = 0
KHO1 171550Z 21011KT 19/02 A3008 RMK A01 T01910016  RH  031%=      5-min Rain = 0
KHO1 171551Z 22011KT 19/02 A3008 RMK A01 T01910016  RH  031%=      5-min Rain = 0
KHO1 171552Z 21009KT 19/02 A3008 RMK A01 T01920017  RH  031%=      5-min Rain = 0
KHO1 171553Z 22008KT 20/02 A3008 RMK A01 T01960018  RH  031%=      5-min Rain = 0
KHO1 171554Z 22009KT 20/02 A3008 RMK A01 T01980017  RH  030%=      5-min Rain = 0
KHO1 171555Z 21011KT 20/02 A3008 RMK A01 T01990017  RH  030%=      5-min Rain = 0
KHO1 171556Z 21009KT 20/02 A3008 RMK A01 T01990017  RH  030%=      5-min Rain = 0
KHO1 171557Z 22008KT 20/02 A3008 RMK A01 T02010018  RH  030%=      5-min Rain = 0
KHO1 171558Z 21012KT 20/02 A3008 RMK A01 T02010016  RH  029%=      5-min Rain = 0
KHO1 171559Z 21009KT 20/02 A3008 RMK A01 T02010016  RH  029%=      5-min Rain = 0
KHO1 171600Z 21007KT 20/02 A3008 RMK A01 T02040018  RH  029%=      5-min Rain = 0
KHO1 171601Z 22008KT 21/02 A3008 RMK A01 T02070017  RH  028%=      5-min Rain = 0
KHO1 171602Z 21010KT 21/02 A3009 RMK A01 T02070015  RH  028%=      5-min Rain = 0
KHO1 171603Z 22010KT 21/02 A3009 RMK A01 T02070015  RH  028%=      5-min Rain = 0
KHO1 171604Z 22010KT 21/02 A3009 RMK A01 T02070015  RH  028%=      5-min Rain = 0
KHO1 171605Z 22010KT 21/02 A3009 RMK A01 T02070015  RH  028%=      5-min Rain = 0
KHO1 171606Z 21011KT 21/01 A3009 RMK A01 T02070014  RH  028%=      5-min Rain = 0
KHO1 171607Z 23010KT 21/01 A3009 RMK A01 T02080014  RH  028%=      5-min Rain = 0
KHO1 171608Z 21009KT 21/02 A3009 RMK A01 T02110015  RH  027%=      5-min Rain = 0
KHO1 171609Z 21010KT 21/02 A3009 RMK A01 T02130015  RH  027%=      5-min Rain = 0
KHO1 171610Z 20009KT 21/01 A3009 RMK A01 T02130014  RH  027%=      5-min Rain = 0
KHO1 171611Z 21010KT 21/01 A3009 RMK A01 T02140014  RH  026%=      5-min Rain = 0
KHO1 171612Z 21010KT 21/01 A3009 RMK A01 T02140013  RH  026%=      5-min Rain = 0
KHO1 171613Z 20009KT 21/01 A3009 RMK A01 T02140013  RH  026%=      5-min Rain = 0
KHO1 171614Z 21010KT 21/01 A3009 RMK A01 T02140012  RH  026%=      5-min Rain = 0
KHO1 171615Z 22010KT 21/01 A3009 RMK A01 T02140012  RH  026%=      5-min Rain = 0
KHO1 171616Z 22009KT 22/01 A3009 RMK A01 T02150012  RH  026%=      5-min Rain = 0
KHO1 171617Z 21008KT 22/01 A3009 RMK A01 T02170013  RH  026%=      5-min Rain = 0
KHO1 171618Z 23008KT 22/01 A3009 RMK A01 T02200012  RH  025%=      5-min Rain = 0
KHO1 171619Z 23007KT 22/01 A3009 RMK A01 T02200011  RH  025%=      5-min Rain = 0
KHO1 171620Z 23010KT 22/01 A3009 RMK A01 T02200011  RH  025%=      5-min Rain = 0
KHO1 171621Z 23010KT 22/01 A3009 RMK A01 T02210011  RH  025%=      5-min Rain = 0
KHO1 171622Z 23007KT 22/01 A3009 RMK A01 T02210011  RH  025%=      5-min Rain = 0
KHO1 171623Z 23008KT 22/01 A3009 RMK A01 T02230011  RH  025%=      5-min Rain = 0
KHO1 171624Z 23010KT 22/01 A3009 RMK A01 T02230010  RH  024%=      5-min Rain = 0
KHO1 171625Z 25008KT 22/01 A3009 RMK A01 T02220009  RH  024%=      5-min Rain = 0
KHO1 171626Z 24010KT 22/01 A3009 RMK A01 T02220010  RH  025%=      5-min Rain = 0
KHO1 171627Z 22009KT 22/01 A3009 RMK A01 T02230011  RH  025%=      5-min Rain = 0
KHO1 171628Z 24009KT 22/01 A3009 RMK A01 T02240011  RH  024%=      5-min Rain = 0
KHO1 171629Z 24010KT 23/01 A3009 RMK A01 T02260011  RH  024%=      5-min Rain = 0
KHO1 171630Z 24010KT 23/01 A3009 RMK A01 T02260009  RH  024%=      5-min Rain = 0
KHO1 171631Z 23008KT 23/01 A3009 RMK A01 T02260010  RH  024%=      5-min Rain = 0
KHO1 171632Z 24007KT 23/01 A3009 RMK A01 T02260011  RH  024%=      5-min Rain = 0
KHO1 171633Z 22007KT 23/01 A3009 RMK A01 T02290011  RH  024%=      5-min Rain = 0
KHO1 171634Z 24010KT 23/01 A3009 RMK A01 T02290009  RH  023%=      5-min Rain = 0
KHO1 171635Z 25009KT 23/01 A3009 RMK A01 T02280010  RH  024%=      5-min Rain = 0
KHO1 171636Z 24010KT 23/01 A3009 RMK A01 T02290010  RH  024%=      5-min Rain = 0
KHO1 171637Z 25009KT 23/01 A3009 RMK A01 T02300010  RH  023%=      5-min Rain = 0
KHO1 171638Z 26008KT 23/01 A3009 RMK A01 T02300009  RH  023%=      5-min Rain = 0
KHO1 171639Z 25010KT 23/01 A3009 RMK A01 T02300009  RH  023%=      5-min Rain = 0
KHO1 171640Z 25007KT 23/01 A3009 RMK A01 T02320011  RH  023%=      5-min Rain = 0
KHO1 171641Z 26011KT 23/01 A3009 RMK A01 T02340009  RH  023%=      5-min Rain = 0
KHO1 171642Z 26009KT 23/01 A3009 RMK A01 T02340007  RH  022%=      5-min Rain = 0
KHO1 171643Z 27011KT 23/01 A3009 RMK A01 T02340007  RH  022%=      5-min Rain = 0
KHO1 171644Z 26011KT 23/01 A3009 RMK A01 T02340005  RH  022%=      5-min Rain = 0
KHO1 171645Z 27009KT 23/01 A3009 RMK A01 T02340007  RH  022%=      5-min Rain = 0
KHO1 171646Z 27011KT 24/01 A3009 RMK A01 T02360006  RH  022%=      5-min Rain = 0
KHO1 171647Z 27012KT 24/01 A3009 RMK A01 T02370006  RH  022%=      5-min Rain = 0
KHO1 171648Z 27011KT 24/01 A3009 RMK A01 T02360006  RH  022%=      5-min Rain = 0
KHO1 171649Z 27012KT 24/01 A3009 RMK A01 T02360006  RH  022%=      5-min Rain = 0
KHO1 171650Z 25010KT 24/01 A3009 RMK A01 T02360006  RH  022%=      5-min Rain = 0
KHO1 171651Z 27009KT 24/01 A3009 RMK A01 T02370006  RH  022%=      5-min Rain = 0
KHO1 171652Z 27010KT 24/01 A3009 RMK A01 T02380006  RH  022%=      5-min Rain = 0
KHO1 171653Z 27011KT 24/01 A3009 RMK A01 T02390005  RH  021%=      5-min Rain = 0
KHO1 171654Z 27008KT 24/01 A3009 RMK A01 T02410006  RH  021%=      5-min Rain = 0
KHO1 171655Z 27008KT 24/01 A3009 RMK A01 T02430006  RH  021%=      5-min Rain = 0
KHO1 171656Z 26011KT 24/01 A3009 RMK A01 T02430005  RH  021%=      5-min Rain = 0
KHO1 171657Z 27011KT 24/00 A3009 RMK A01 T02420004  RH  021%=      5-min Rain = 0
KHO1 171658Z 26010KT 24/01 A3009 RMK A01 T02440005  RH  021%=      5-min Rain = 0
KHO1 171659Z 25011KT 25/00 A3009 RMK A01 T02450003  RH  020%=      5-min Rain = 0
KHO1 171700Z 26010KT 25/00 A3008 RMK A01 T02460004  RH  020%=      5-min Rain = 0
KHO1 171701Z 24012KT 25/00 A3008 RMK A01 T02460002  RH  020%=      5-min Rain = 0
KHO1 171702Z 26013KT 25/00 A3008 RMK A01 T02450002  RH  020%=      5-min Rain = 0
KHO1 171703Z 26014KT 24/00 A3008 RMK A01 T02440000  RH  020%=      5-min Rain = 0
KHO1 171704Z 27013KT 24/00 A3008 RMK A01 T02440001  RH  020%=      5-min Rain = 0
KHO1 171705Z 28014KT 24/00 A3008 RMK A01 T02440002  RH  020%=      5-min Rain = 0
KHO1 171706Z 26013KT 24/00 A3008 RMK A01 T02440002  RH  020%=      5-min Rain = 0
KHO1 171707Z 27015KT 25/00 A3008 RMK A01 T02450001  RH  020%=      5-min Rain = 0
KHO1 171708Z 26015KT 24/00 A3008 RMK A01 T02440001  RH  020%=      5-min Rain = 0
KHO1 171709Z 26013KT 25/00 A3008 RMK A01 T02450000  RH  020%=      5-min Rain = 0
KHO1 171710Z 26014KT 25/00 A3008 RMK A01 T024600-0  RH  020%=      5-min Rain = 0
KHO1 171711Z 26015KT 25/00 A3008 RMK A01 T02460001  RH  020%=      5-min Rain = 0
KHO1 171712Z 26014KT 25/M00 A3008 RMK A01 T02461002  RH  020%=      5-min Rain = 0
KHO1 171713Z 26014KT 25/M00 A3008 RMK A01 T02461001  RH  020%=      5-min Rain = 0
KHO1 171714Z 26012KT 25/00 A3008 RMK A01 T02460000  RH  020%=      5-min Rain = 0
KHO1 171715Z 26014KT 25/00 A3008 RMK A01 T02470001  RH  020%=      5-min Rain = 0
KHO1 171716Z 26014KT 25/00 A3007 RMK A01 T024700-0  RH  020%=      5-min Rain = 0
KHO1 171717Z 26015KT 25/M00 A3007 RMK A01 T02481002  RH  019%=      5-min Rain = 0
KHO1 171718Z 26016KT 25/M00 A3008 RMK A01 T02481002  RH  019%=      5-min Rain = 0
KHO1 171719Z 26014KT 25/M00 A3008 RMK A01 T02471001  RH  019%=      5-min Rain = 0
KHO1 171720Z 25013KT 25/00 A3007 RMK A01 T024800-0  RH  019%=      5-min Rain = 0
KHO1 171721Z 25015KT 25/M00 A3007 RMK A01 T02491001  RH  019%=      5-min Rain = 0
KHO1 171722Z 26015KT 25/M00 A3007 RMK A01 T02501001  RH  019%=      5-min Rain = 0
KHO1 171723Z 26014KT 25/M00 A3007 RMK A01 T02501003  RH  019%=      5-min Rain = 0
KHO1 171724Z 26011KT 25/M00 A3007 RMK A01 T02501001  RH  019%=      5-min Rain = 0
KHO1 171725Z 24013KT 25/M00 A3007 RMK A01 T02531001  RH  019%=      5-min Rain = 0
KHO1 171726Z 25015KT 25/M00 A3007 RMK A01 T02541002  RH  019%=      5-min Rain = 0
KHO1 171727Z 25015KT 25/M00 A3007 RMK A01 T02541004  RH  018%=      5-min Rain = 0
KHO1 171728Z 26013KT 25/M00 A3007 RMK A01 T02541004  RH  018%=      5-min Rain = 0
KHO1 171729Z 26014KT 26/M00 A3007 RMK A01 T02561003  RH  018%=      5-min Rain = 0
KHO1 171730Z 25014KT 26/M00 A3007 RMK A01 T02551004  RH  018%=      5-min Rain = 0
KHO1 171731Z 25015KT 25/M01 A3007 RMK A01 T02541005  RH  018%=      5-min Rain = 0
KHO1 171732Z 26014KT 26/M00 A3007 RMK A01 T02551004  RH  018%=      5-min Rain = 0
KHO1 171733Z 25014KT 25/M00 A3007 RMK A01 T02541003  RH  018%=      5-min Rain = 0
KHO1 171734Z 24012KT 25/M00 A3007 RMK A01 T02541001  RH  019%=      5-min Rain = 0
KHO1 171735Z 24014KT 26/M00 A3007 RMK A01 T02551003  RH  018%=      5-min Rain = 0
KHO1 171736Z 26012KT 26/M00 A3007 RMK A01 T02571002  RH  018%=      5-min Rain = 0
KHO1 171737Z 26014KT 26/M01 A3007 RMK A01 T02591005  RH  018%=      5-min Rain = 0
KHO1 171738Z 26015KT 26/M01 A3007 RMK A01 T02591005  RH  018%=      5-min Rain = 0
KHO1 171739Z 26014KT 26/M01 A3007 RMK A01 T02571007  RH  018%=      5-min Rain = 0
KHO1 171740Z 27014KT 26/M01 A3007 RMK A01 T02561006  RH  018%=      5-min Rain = 0
KHO1 171741Z 27013KT 26/M01 A3007 RMK A01 T02561006  RH  018%=      5-min Rain = 0
KHO1 171742Z 27015KT 26/M01 A3007 RMK A01 T02571006  RH  018%=      5-min Rain = 0
KHO1 171743Z 26014KT 26/M01 A3007 RMK A01 T02581005  RH  018%=      5-min Rain = 0
KHO1 171744Z 26013KT 26/M01 A3007 RMK A01 T02581005  RH  018%=      5-min Rain = 0
KHO1 171745Z 25014KT 26/M01 A3007 RMK A01 T02581005  RH  018%=      5-min Rain = 0
KHO1 171746Z 25014KT 26/M01 A3007 RMK A01 T02581005  RH  018%=      5-min Rain = 0
KHO1 171747Z 25015KT 26/M01 A3007 RMK A01 T02581005  RH  018%=      5-min Rain = 0
KHO1 171748Z 26012KT 26/M01 A3007 RMK A01 T02581007  RH  018%=      5-min Rain = 0
KHO1 171749Z 26010KT 26/M01 A3006 RMK A01 T02581006  RH  018%=      5-min Rain = 0
KHO1 171750Z 25012G17KT 26/M01 A3007 RMK A01 T02611005  RH  018%=      5-min Rain = 0
KHO1 171751Z 25013KT 26/M01 A3007 RMK A01 T02641007  RH  017%=      5-min Rain = 0
KHO1 171752Z 27013KT 26/M01 A3007 RMK A01 T02641007  RH  017%=      5-min Rain = 0
KHO1 171753Z 27014KT 26/M01 A3006 RMK A01 T02631007  RH  017%=      5-min Rain = 0
KHO1 171754Z 26014KT 26/M01 A3007 RMK A01 T02631008  RH  017%=      5-min Rain = 0
KHO1 171755Z 27014KT 26/M01 A3007 RMK A01 T02641008  RH  017%=      5-min Rain = 0
KHO1 171756Z 27015KT 26/M01 A3007 RMK A01 T02641009  RH  017%=      5-min Rain = 0
KHO1 171757Z 26011KT 27/M01 A3006 RMK A01 T02651007  RH  017%=      5-min Rain = 0
KHO1 171758Z 26011KT 27/M01 A3006 RMK A01 T02661007  RH  017%=      5-min Rain = 0
KHO1 171759Z 28012KT 27/M01 A3006 RMK A01 T02651008  RH  017%=      5-min Rain = 0
KHO1 171800Z 25011KT 27/M01 A3006 RMK A01 T02651007  RH  017%=      5-min Rain = 0
KHO1 171801Z 24010G15KT 27/M01 A3006 RMK A01 T02671006  RH  017%=      5-min Rain = 0
KHO1 171802Z 24014KT 27/M01 A3006 RMK A01 T02681007  RH  016%=      5-min Rain = 0
KHO1 171803Z 25015KT 27/M01 A3006 RMK A01 T02671007  RH  017%=      5-min Rain = 0
KHO1 171804Z 25013KT 27/M01 A3006 RMK A01 T02681010  RH  016%=      5-min Rain = 0
KHO1 171805Z 25015KT 27/M01 A3006 RMK A01 T02681012  RH  016%=      5-min Rain = 0
KHO1 171806Z 26014KT 27/M01 A3006 RMK A01 T02681014  RH  016%=      5-min Rain = 0
KHO1 171807Z 27013KT 27/M02 A3006 RMK A01 T02691015  RH  015%=      5-min Rain = 0
KHO1 171808Z 27012KT 27/M01 A3006 RMK A01 T02701013  RH  016%=      5-min Rain = 0
KHO1 171809Z 27012KT 27/M01 A3006 RMK A01 T02711014  RH  015%=      5-min Rain = 0
KHO1 171810Z 25011KT 27/M01 A3006 RMK A01 T02721014  RH  015%=      5-min Rain = 0
KHO1 171811Z 25014KT 27/M02 A3006 RMK A01 T02731015  RH  015%=      5-min Rain = 0
KHO1 171812Z 26012KT 27/M02 A3006 RMK A01 T02711015  RH  015%=      5-min Rain = 0
KHO1 171813Z 25015KT 27/M02 A3006 RMK A01 T02701016  RH  015%=      5-min Rain = 0
KHO1 171814Z 26014KT 27/M01 A3006 RMK A01 T02701014  RH  015%=      5-min Rain = 0
KHO1 171815Z 25014KT 27/M01 A3006 RMK A01 T02701014  RH  015%=      5-min Rain = 0
KHO1 171816Z 25012KT 27/M02 A3005 RMK A01 T02711016  RH  015%=      5-min Rain = 0
KHO1 171817Z 25010KT 27/M02 A3005 RMK A01 T02721016  RH  015%=      5-min Rain = 0
KHO1 171818Z 25013G18KT 27/M02 A3005 RMK A01 T02741015  RH  015%=      5-min Rain = 0
KHO1 171819Z 25014KT 27/M02 A3005 RMK A01 T02741016  RH  015%=      5-min Rain = 0
KHO1 171820Z 25014KT 27/M02 A3005 RMK A01 T02731017  RH  015%=      5-min Rain = 0
KHO1 171821Z 25012KT 27/M02 A3005 RMK A01 T02741016  RH  015%=      5-min Rain = 0
KHO1 171822Z 24009KT 28/M02 A3005 RMK A01 T02751015  RH  015%=      5-min Rain = 0
KHO1 171823Z 25008G13KT 28/M01 A3005 RMK A01 T02771014  RH  015%=      5-min Rain = 0
KHO1 171824Z 26010KT 28/M01 A3005 RMK A01 T02791014  RH  015%=      5-min Rain = 0
KHO1 171825Z 25012G17KT 28/M02 A3005 RMK A01 T02781015  RH  015%=      5-min Rain = 0
KHO1 171826Z 26014KT 28/M02 A3005 RMK A01 T02761016  RH  015%=      5-min Rain = 0
KHO1 171827Z 26010KT 28/M02 A3005 RMK A01 T02751016  RH  015%=      5-min Rain = 0
KHO1 171828Z 24009KT 28/M01 A3005 RMK A01 T02761014  RH  015%=      5-min Rain = 0
KHO1 171829Z 26008KT 28/M01 A3005 RMK A01 T02761014  RH  015%=      5-min Rain = 0
KHO1 171830Z 27011KT 28/M01 A3005 RMK A01 T02781014  RH  015%=      5-min Rain = 0
KHO1 171831Z 26011KT 28/M01 A3005 RMK A01 T02791014  RH  015%=      5-min Rain = 0
KHO1 171832Z 28011KT 28/M02 A3005 RMK A01 T02811015  RH  014%=      5-min Rain = 0
KHO1 171833Z 28012KT 28/M02 A3005 RMK A01 T02821017  RH  014%=      5-min Rain = 0
KHO1 171834Z 26009KT 28/M02 A3005 RMK A01 T02821015  RH  014%=      5-min Rain = 0
KHO1 171835Z 25014KT 28/M01 A3005 RMK A01 T02841014  RH  014%=      5-min Rain = 0
KHO1 171836Z 26011KT 28/M02 A3005 RMK A01 T02811015  RH  014%=      5-min Rain = 0
KHO1 171837Z 27009KT 28/M02 A3004 RMK A01 T02801016  RH  014%=      5-min Rain = 0
KHO1 171838Z 26009G14KT 28/M02 A3004 RMK A01 T02801015  RH  015%=      5-min Rain = 0
KHO1 171839Z 25014KT 28/M02 A3005 RMK A01 T02831018  RH  014%=      5-min Rain = 0
KHO1 171840Z 26012KT 28/M02 A3004 RMK A01 T02811017  RH  014%=      5-min Rain = 0
KHO1 171841Z 25011KT 28/M02 A3004 RMK A01 T02811017  RH  014%=      5-min Rain = 0
KHO1 171842Z 27011KT 28/M02 A3004 RMK A01 T02821017  RH  014%=      5-min Rain = 0
KHO1 171843Z 27011KT 28/M02 A3004 RMK A01 T02831019  RH  014%=      5-min Rain = 0
KHO1 171844Z 26012KT 29/M02 A3004 RMK A01 T02861017  RH  014%=      5-min Rain = 0
KHO1 171845Z 26009KT 29/M02 A3004 RMK A01 T02871016  RH  014%=      5-min Rain = 0
KHO1 171846Z 26013KT 29/M02 A3004 RMK A01 T02881017  RH  014%=      5-min Rain = 0
KHO1 171847Z 26014KT 29/M02 A3004 RMK A01 T02851018  RH  014%=      5-min Rain = 0
KHO1 171848Z 26013KT 28/M02 A3004 RMK A01 T02841018  RH  014%=      5-min Rain = 0
KHO1 171849Z 25012KT 28/M02 A3004 RMK A01 T02841017  RH  014%=      5-min Rain = 0
KHO1 171850Z 26012KT 29/M02 A3004 RMK A01 T02851018  RH  014%=      5-min Rain = 0
KHO1 171851Z 25014KT 29/M02 A3004 RMK A01 T02861019  RH  014%=      5-min Rain = 0
KHO1 171852Z 26012KT 29/M02 A3004 RMK A01 T02851020  RH  014%=      5-min Rain = 0
KHO1 171853Z 27014KT 29/M02 A3004 RMK A01 T02851020  RH  014%=      5-min Rain = 0
KHO1 171854Z 26011KT 28/M02 A3004 RMK A01 T02821020  RH  014%=      5-min Rain = 0
KHO1 171855Z 25012G17KT 28/M02 A3003 RMK A01 T02811020  RH  014%=      5-min Rain = 0
KHO1 171856Z 25014KT 28/M02 A3004 RMK A01 T02821020  RH  014%=      5-min Rain = 0
KHO1 171857Z 25011KT 28/M02 A3003 RMK A01 T02821020  RH  014%=      5-min Rain = 0
KHO1 171858Z 25015KT 28/M02 A3003 RMK A01 T02841021  RH  014%=      5-min Rain = 0
KHO1 171859Z 26013KT 29/M02 A3003 RMK A01 T02851021  RH  013%=      5-min Rain = 0
KHO1 171900Z 27011KT 29/M02 A3003 RMK A01 T02861021  RH  013%=      5-min Rain = 0
KHO1 171901Z 26013KT 29/M02 A3003 RMK A01 T02861021  RH  013%=      5-min Rain = 0
KHO1 171902Z 25012KT 29/M02 A3003 RMK A01 T02871020  RH  013%=      5-min Rain = 0
KHO1 171903Z 25011KT 29/M02 A3003 RMK A01 T02881020  RH  013%=      5-min Rain = 0
KHO1 171904Z 25012KT 29/M02 A3003 RMK A01 T02891020  RH  013%=      5-min Rain = 0
KHO1 171905Z 25012KT 29/M02 A3003 RMK A01 T02891021  RH  013%=      5-min Rain = 0
KHO1 171906Z 26013KT 29/M02 A3003 RMK A01 T02891020  RH  013%=      5-min Rain = 0
KHO1 171907Z 26011KT 29/M02 A3003 RMK A01 T02891020  RH  013%=      5-min Rain = 0
KHO1 171908Z 26011KT 29/M02 A3003 RMK A01 T02901021  RH  013%=      5-min Rain = 0
KHO1 171909Z 25013KT 29/M02 A3002 RMK A01 T02891022  RH  013%=      5-min Rain = 0
KHO1 171910Z 25011KT 29/M02 A3002 RMK A01 T02891021  RH  013%=      5-min Rain = 0
KHO1 171911Z 25011KT 29/M02 A3002 RMK A01 T02891022  RH  013%=      5-min Rain = 0
KHO1 171912Z 25011KT 29/M02 A3002 RMK A01 T02891021  RH  013%=      5-min Rain = 0
KHO1 171913Z 27012KT 29/M02 A3002 RMK A01 T02891020  RH  013%=      5-min Rain = 0
KHO1 171914Z 26011KT 29/M02 A3002 RMK A01 T02881021  RH  013%=      5-min Rain = 0
KHO1 171915Z 27010KT 29/M02 A3002 RMK A01 T02871020  RH  013%=      5-min Rain = 0
KHO1 171916Z 26013KT 29/M02 A3002 RMK A01 T02881021  RH  013%=      5-min Rain = 0
KHO1 171917Z 28011KT 29/M02 A3002 RMK A01 T02901022  RH  013%=      5-min Rain = 0
KHO1 171918Z 26011KT 29/M02 A3002 RMK A01 T02881022  RH  013%=      5-min Rain = 0
KHO1 171919Z 25011KT 29/M02 A3002 RMK A01 T02891021  RH  013%=      5-min Rain = 0
KHO1 171920Z 23012KT 29/M02 A3002 RMK A01 T02881023  RH  013%=      5-min Rain = 0
KHO1 171921Z 24011KT 29/M02 A3002 RMK A01 T02891022  RH  013%=      5-min Rain = 0
KHO1 171922Z 25012KT 29/M02 A3002 RMK A01 T02921021  RH  013%=      5-min Rain = 0
KHO1 171923Z 26011KT 29/M02 A3002 RMK A01 T02911021  RH  013%=      5-min Rain = 0
KHO1 171924Z 25010KT 29/M02 A3001 RMK A01 T02911021  RH  013%=      5-min Rain = 0
KHO1 171925Z 25010KT 29/M02 A3001 RMK A01 T02911022  RH  013%=      5-min Rain = 0
KHO1 171926Z 25012KT 29/M02 A3001 RMK A01 T02911021  RH  013%=      5-min Rain = 0
KHO1 171927Z 26013KT 29/M02 A3001 RMK A01 T02921021  RH  013%=      5-min Rain = 0
KHO1 171928Z 24011KT 29/M02 A3001 RMK A01 T02931019  RH  013%=      5-min Rain = 0
KHO1 171929Z 25012KT 29/M02 A3001 RMK A01 T02941020  RH  013%=      5-min Rain = 0
KHO1 171930Z 27013KT 29/M02 A3001 RMK A01 T02941021  RH  013%=      5-min Rain = 0
KHO1 171931Z 26011KT 29/M02 A3001 RMK A01 T02931022  RH  013%=      5-min Rain = 0
KHO1 171932Z 25009KT 29/M02 A3001 RMK A01 T02931021  RH  013%=      5-min Rain = 0
KHO1 171933Z 27013KT 29/M02 A3001 RMK A01 T02941024  RH  012%=      5-min Rain = 0
KHO1 171934Z 27013KT 29/M03 A3001 RMK A01 T02921025  RH  013%=      5-min Rain = 0
KHO1 171935Z 27012KT 29/M03 A3001 RMK A01 T02931026  RH  012%=      5-min Rain = 0
KHO1 171936Z 25012KT 29/M03 A3001 RMK A01 T02931025  RH  012%=      5-min Rain = 0
KHO1 171937Z 25012KT 29/M03 A30 RMK A01 T02941025  RH  012%=      5-min Rain = 0
KHO1 171938Z 25013KT 29/M03 A30 RMK A01 T02941026  RH  012%=      5-min Rain = 0
KHO1 171939Z 26014KT 30/M03 A30 RMK A01 T02961026  RH  012%=      5-min Rain = 0
KHO1 171940Z 25013KT 30/M03 A30 RMK A01 T02951026  RH  012%=      5-min Rain = 0
KHO1 171941Z 25011KT 30/M02 A30 RMK A01 T02961024  RH  012%=      5-min Rain = 0
KHO1 171942Z 25013G18KT 30/M02 A30 RMK A01 T02961024  RH  012%=      5-min Rain = 0
KHO1 171943Z 25012KT 30/M03 A30 RMK A01 T02961025  RH  012%=      5-min Rain = 0
KHO1 171944Z 25011KT 30/M03 A30 RMK A01 T02951025  RH  012%=      5-min Rain = 0
KHO1 171945Z 25016KT 29/M03 A30 RMK A01 T02941026  RH  012%=      5-min Rain = 0
KHO1 171946Z 26014KT 29/M03 A30 RMK A01 T02941029  RH  012%=      5-min Rain = 0
KHO1 171947Z 25012KT 30/M03 A30 RMK A01 T02951029  RH  012%=      5-min Rain = 0
KHO1 171948Z 26012KT 30/M03 A30 RMK A01 T02951028  RH  012%=      5-min Rain = 0
KHO1 171949Z 26014KT 30/M03 A30 RMK A01 T02971028  RH  012%=      5-min Rain = 0
KHO1 171950Z 27012KT 30/M03 A30 RMK A01 T02971028  RH  012%=      5-min Rain = 0
KHO1 171951Z 27012KT 30/M03 A30 RMK A01 T02971028  RH  012%=      5-min Rain = 0
KHO1 171952Z 26010KT 30/M03 A30 RMK A01 T02971028  RH  012%=      5-min Rain = 0
KHO1 171953Z 26009KT 30/M03 A30 RMK A01 T02971028  RH  012%=      5-min Rain = 0
KHO1 171954Z 25011G19KT 30/M03 A2999 RMK A01 T02991026  RH  012%=      5-min Rain = 0
KHO1 171955Z 27013KT 30/M03 A2999 RMK A01 T03001028  RH  012%=      5-min Rain = 0
KHO1 171956Z 27010KT 30/M03 A2999 RMK A01 T03011029  RH  012%=      5-min Rain = 0
KHO1 171957Z 27011KT 30/M03 A2999 RMK A01 T03021029  RH  012%=      5-min Rain = 0
KHO1 171958Z 26012KT 30/M03 A2999 RMK A01 T03031028  RH  012%=      5-min Rain = 0
KHO1 171959Z 27012KT 30/M03 A2999 RMK A01 T03021027  RH  012%=      5-min Rain = 0
KHO1 172000Z 27009KT 30/M03 A2999 RMK A01 T03011026  RH  012%=      5-min Rain = 0
KHO1 172001Z 27010KT 30/M03 A2999 RMK A01 T03021026  RH  012%=      5-min Rain = 0
KHO1 172002Z 27011G16KT 30/M03 A2999 RMK A01 T03011025  RH  012%=      5-min Rain = 0
KHO1 172003Z 27014KT 30/M03 A2999 RMK A01 T03011025  RH  012%=      5-min Rain = 0
KHO1 172004Z 27012KT 30/M03 A2999 RMK A01 T03001026  RH  012%=      5-min Rain = 0
KHO1 172005Z 26009KT 30/M03 A2999 RMK A01 T02991026  RH  012%=      5-min Rain = 0
KHO1 172006Z 26012KT 30/M03 A2999 RMK A01 T03001026  RH  012%=      5-min Rain = 0
KHO1 172007Z 26013KT 30/M03 A2999 RMK A01 T03001025  RH  012%=      5-min Rain = 0
KHO1 172008Z 26012KT 30/M02 A2999 RMK A01 T03001024  RH  012%=      5-min Rain = 0
KHO1 172009Z 28012KT 30/M02 A2999 RMK A01 T02991024  RH  012%=      5-min Rain = 0
KHO1 172010Z 26012KT 30/M02 A2999 RMK A01 T02981024  RH  012%=      5-min Rain = 0
KHO1 172011Z 26009KT 30/M02 A2999 RMK A01 T02991024  RH  012%=      5-min Rain = 0
KHO1 172012Z 27013G18KT 30/M03 A2999 RMK A01 T03031026  RH  012%=      5-min Rain = 0
KHO1 172013Z 27015KT 30/M03 A2999 RMK A01 T03021027  RH  012%=      5-min Rain = 0
KHO1 172014Z 28011KT 30/M03 A2999 RMK A01 T03011027  RH  012%=      5-min Rain = 0
KHO1 172015Z 27011KT 30/M03 A2999 RMK A01 T03011026  RH  012%=      5-min Rain = 0
KHO1 172016Z 26013KT 30/M02 A2999 RMK A01 T03011024  RH  012%=      5-min Rain = 0
KHO1 172017Z 26012KT 30/M02 A2999 RMK A01 T03001023  RH  012%=      5-min Rain = 0
KHO1 172018Z 23012KT 30/M02 A2999 RMK A01 T03001023  RH  012%=      5-min Rain = 0
KHO1 172019Z 24010KT 30/M02 A2999 RMK A01 T03021023  RH  012%=      5-min Rain = 0
KHO1 172020Z 28012KT 30/M03 A2999 RMK A01 T03031025  RH  012%=      5-min Rain = 0
KHO1 172021Z 28012KT 30/M03 A2998 RMK A01 T03031026  RH  012%=      5-min Rain = 0
KHO1 172022Z 26012KT 30/M03 A2999 RMK A01 T03021027  RH  012%=      5-min Rain = 0
KHO1 172023Z 27011KT 30/M03 A2998 RMK A01 T03011027  RH  012%=      5-min Rain = 0
KHO1 172024Z 27013KT 30/M03 A2998 RMK A01 T03031028  RH  012%=      5-min Rain = 0
KHO1 172025Z 27013KT 30/M03 A2998 RMK A01 T03021027  RH  012%=      5-min Rain = 0
KHO1 172026Z 27013KT 30/M03 A2998 RMK A01 T03011025  RH  012%=      5-min Rain = 0
KHO1 172027Z 28010KT 30/M03 A2998 RMK A01 T03011025  RH  012%=      5-min Rain = 0
KHO1 172028Z 27013KT 30/M03 A2998 RMK A01 T03031026  RH  012%=      5-min Rain = 0
KHO1 172029Z 27014KT 30/M03 A2998 RMK A01 T03021027  RH  012%=      5-min Rain = 0
KHO1 172030Z 26011KT 30/M03 A2998 RMK A01 T03021027  RH  012%=      5-min Rain = 0
KHO1 172031Z 26009KT 30/M02 A2998 RMK A01 T03041024  RH  012%=      5-min Rain = 0
KHO1 172032Z 25011KT 31/M02 A2998 RMK A01 T03071024  RH  012%=      5-min Rain = 0
KHO1 172033Z 28013KT 31/M03 A2998 RMK A01 T03081026  RH  011%=      5-min Rain = 0
KHO1 172034Z 27010KT 31/M03 A2998 RMK A01 T03071030  RH  011%=      5-min Rain = 0
KHO1 172035Z 28008KT 31/M03 A2997 RMK A01 T03081032  RH  011%=      5-min Rain = 0
KHO1 172036Z 26009G14KT 31/M03 A2997 RMK A01 T03101030  RH  011%=      5-min Rain = 0
KHO1 172037Z 26011KT 31/M03 A2997 RMK A01 T03111025  RH  011%=      5-min Rain = 0
KHO1 172038Z 27011G16KT 31/M03 A2997 RMK A01 T03081026  RH  011%=      5-min Rain = 0
KHO1 172039Z 27014KT 31/M03 A2998 RMK A01 T03071029  RH  011%=      5-min Rain = 0
KHO1 172040Z 27013KT 31/M03 A2997 RMK A01 T03061027  RH  011%=      5-min Rain = 0
KHO1 172041Z 27011KT 31/M03 A2997 RMK A01 T03061025  RH  012%=      5-min Rain = 0
KHO1 172042Z 29011G16KT 31/M03 A2997 RMK A01 T03061026  RH  011%=      5-min Rain = 0
KHO1 172043Z 29011KT 31/M03 A2997 RMK A01 T03071027  RH  011%=      5-min Rain = 0
KHO1 172044Z 30012KT 31/M03 A2997 RMK A01 T03081029  RH  011%=      5-min Rain = 0
KHO1 172045Z 29013G19KT 31/M03 A2997 RMK A01 T03081029  RH  011%=      5-min Rain = 0
KHO1 172046Z 27012G17KT 31/M03 A2997 RMK A01 T03071030  RH  011%=      5-min Rain = 0
KHO1 172047Z 26010KT 31/M03 A2997 RMK A01 T03091028  RH  011%=      5-min Rain = 0
KHO1 172048Z 25015KT 31/M03 A2997 RMK A01 T03101028  RH  011%=      5-min Rain = 0
KHO1 172049Z 25012KT 31/M03 A2997 RMK A01 T03071027  RH  011%=      5-min Rain = 0
KHO1 172050Z 26010KT 31/M03 A2997 RMK A01 T03051028  RH  011%=      5-min Rain = 0
KHO1 172051Z 25008KT 31/M03 A2997 RMK A01 T03061027  RH  011%=      5-min Rain = 0
KHO1 172052Z 25011KT 31/M03 A2997 RMK A01 T03101027  RH  011%=      5-min Rain = 0
KHO1 172053Z 25012KT 31/M03 A2997 RMK A01 T03111027  RH  011%=      5-min Rain = 0
KHO1 172054Z 24014KT 31/M03 A2997 RMK A01 T03101029  RH  011%=      5-min Rain = 0
KHO1 172055Z 25012KT 31/M03 A2997 RMK A01 T03071029  RH  011%=      5-min Rain = 0
KHO1 172056Z 26008KT 30/M03 A2997 RMK A01 T03041028  RH  011%=      5-min Rain = 0
KHO1 172057Z 25007KT 31/M03 A2997 RMK A01 T03051026  RH  012%=      5-min Rain = 0
KHO1 172058Z 27009G15KT 31/M03 A2997 RMK A01 T03071026  RH  011%=      5-min Rain = 0
KHO1 172059Z 29010KT 31/M03 A2997 RMK A01 T03101031  RH  011%=      5-min Rain = 0
KHO1 172100Z 27012KT 31/M03 A2997 RMK A01 T03111033  RH  011%=      5-min Rain = 0
KHO1 172101Z 27011KT 31/M03 A2997 RMK A01 T03091031  RH  011%=      5-min Rain = 0
KHO1 172102Z 26008KT 31/M03 A2997 RMK A01 T03081031  RH  011%=      5-min Rain = 0
KHO1 172103Z 25008KT 31/M03 A2997 RMK A01 T03091030  RH  011%=      5-min Rain = 0
KHO1 172104Z 26012KT 31/M04 A2997 RMK A01 T03101036  RH  010%=      5-min Rain = 0
KHO1 172105Z 26013KT 31/M04 A2997 RMK A01 T03091036  RH  010%=      5-min Rain = 0
KHO1 172106Z 26012KT 31/M03 A2997 RMK A01 T03081034  RH  011%=      5-min Rain = 0
KHO1 172107Z 27010KT 31/M03 A2997 RMK A01 T03091033  RH  011%=      5-min Rain = 0
KHO1 172108Z 27011KT 31/M03 A2997 RMK A01 T03091031  RH  011%=      5-min Rain = 0
KHO1 172109Z 25012KT 31/M03 A2997 RMK A01 T03111034  RH  011%=      5-min Rain = 0
KHO1 172110Z 25012KT 31/M04 A2997 RMK A01 T03091036  RH  010%=      5-min Rain = 0
KHO1 172111Z 26013KT 31/M04 A2997 RMK A01 T03091040  RH  010%=      5-min Rain = 0
KHO1 172112Z 26011G16KT 31/M04 A2997 RMK A01 T03091039  RH  010%=      5-min Rain = 0
KHO1 172113Z 26009KT 31/M04 A2997 RMK A01 T03111037  RH  010%=      5-min Rain = 0
KHO1 172114Z 27012KT 31/M03 A2997 RMK A01 T03121033  RH  011%=      5-min Rain = 0
KHO1 172115Z 26011KT 31/M03 A2997 RMK A01 T03091033  RH  011%=      5-min Rain = 0
KHO1 172116Z 26012KT 31/M04 A2997 RMK A01 T03081035  RH  011%=      5-min Rain = 0
KHO1 172117Z 25011KT 31/M04 A2996 RMK A01 T03081036  RH  011%=      5-min Rain = 0
KHO1 172118Z 27009KT 31/M04 A2996 RMK A01 T03081036  RH  011%=      5-min Rain = 0
KHO1 172119Z 26009KT 31/M04 A2996 RMK A01 T03101036  RH  010%=      5-min Rain = 0
KHO1 172120Z 25010KT 31/M04 A2996 RMK A01 T03121042  RH  010%=      5-min Rain = 0
KHO1 172121Z 27012KT 31/M04 A2996 RMK A01 T03111036  RH  010%=      5-min Rain = 0
KHO1 172122Z 26012KT 31/M04 A2996 RMK A01 T03111036  RH  010%=      5-min Rain = 0
KHO1 172123Z 26012KT 31/M04 A2996 RMK A01 T03111040  RH  010%=      5-min Rain = 0
KHO1 172124Z 28013KT 31/M04 A2996 RMK A01 T03111038  RH  010%=      5-min Rain = 0
KHO1 172125Z 27010KT 31/M04 A2996 RMK A01 T03101036  RH  010%=      5-min Rain = 0
KHO1 172126Z 27011KT 31/M04 A2996 RMK A01 T03111036  RH  010%=      5-min Rain = 0
KHO1 172127Z 26010KT 31/M04 A2996 RMK A01 T03101036  RH  010%=      5-min Rain = 0
KHO1 172128Z 26012KT 31/M03 A2996 RMK A01 T03101034  RH  011%=      5-min Rain = 0
KHO1 172129Z 26014KT 31/M03 A2996 RMK A01 T03091031  RH  011%=      5-min Rain = 0
KHO1 172130Z 28014KT 31/M03 A2996 RMK A01 T03091028  RH  011%=      5-min Rain = 0
KHO1 172131Z 27013KT 31/M03 A2996 RMK A01 T03081026  RH  011%=      5-min Rain = 0
KHO1 172132Z 26011KT 31/M03 A2996 RMK A01 T03091026  RH  011%=      5-min Rain = 0
KHO1 172133Z 26011KT 31/M03 A2996 RMK A01 T03091026  RH  011%=      5-min Rain = 0
KHO1 172134Z 28011KT 31/M03 A2996 RMK A01 T03081028  RH  011%=      5-min Rain = 0
KHO1 172135Z 28010KT 31/M03 A2996 RMK A01 T03081030  RH  011%=      5-min Rain = 0
KHO1 172136Z 27008KT 31/M03 A2996 RMK A01 T03081031  RH  011%=      5-min Rain = 0
KHO1 172137Z 29009KT 31/M03 A2996 RMK A01 T03101031  RH  011%=      5-min Rain = 0
KHO1 172138Z 28010KT 31/M03 A2996 RMK A01 T03111031  RH  011%=      5-min Rain = 0
KHO1 172139Z 27013KT 31/M03 A2996 RMK A01 T03111031  RH  011%=      5-min Rain = 0
KHO1 172140Z 26011KT 31/M03 A2996 RMK A01 T03091029  RH  011%=      5-min Rain = 0
KHO1 172141Z 27009KT 31/M03 A2996 RMK A01 T03091029  RH  011%=      5-min Rain = 0
KHO1 172142Z 26010KT 31/M03 A2996 RMK A01 T03101030  RH  011%=      5-min Rain = 0
KHO1 172143Z 25012KT 31/M03 A2996 RMK A01 T03111030  RH  011%=      5-min Rain = 0
KHO1 172144Z 26010KT 31/M03 A2996 RMK A01 T03101032  RH  011%=      5-min Rain = 0
KHO1 172145Z 26008KT 31/M03 A2996 RMK A01 T03101033  RH  011%=      5-min Rain = 0
KHO1 172146Z 25008KT 31/M03 A2996 RMK A01 T03101032  RH  011%=      5-min Rain = 0
KHO1 172147Z 24012KT 31/M03 A2995 RMK A01 T03111033  RH  011%=      5-min Rain = 0
KHO1 172148Z 25011KT 31/M03 A2995 RMK A01 T03111033  RH  011%=      5-min Rain = 0
KHO1 172149Z 26014KT 31/M04 A2995 RMK A01 T03131038  RH  010%=      5-min Rain = 0
KHO1 172150Z 25013KT 31/M05 A2995 RMK A01 T03121046  RH  010%=      5-min Rain = 0
KHO1 172151Z 26014KT 31/M04 A2996 RMK A01 T03111043  RH  010%=      5-min Rain = 0
KHO1 172152Z 26013KT 31/M04 A2996 RMK A01 T03091040  RH  010%=      5-min Rain = 0
KHO1 172153Z 28009KT 31/M04 A2995 RMK A01 T03091036  RH  011%=      5-min Rain = 0
KHO1 172154Z 28008KT 31/M03 A2995 RMK A01 T03101034  RH  011%=      5-min Rain = 0
KHO1 172155Z 27009KT 31/M04 A2995 RMK A01 T03111037  RH  010%=      5-min Rain = 0
KHO1 172156Z 27009KT 31/M04 A2995 RMK A01 T03121039  RH  010%=      5-min Rain = 0
KHO1 172157Z 26008KT 31/M04 A2995 RMK A01 T03121040  RH  010%=      5-min Rain = 0
KHO1 172158Z 27010KT 31/M05 A2995 RMK A01 T03131049  RH  009%=      5-min Rain = 0
KHO1 172159Z 29009KT 31/M05 A2995 RMK A01 T03141051  RH  009%=      5-min Rain = 0
KHO1 172200Z 28011KT 32/M05 A2995 RMK A01 T03151051  RH  009%=      5-min Rain = 0
KHO1 172201Z 29008KT 32/M05 A2995 RMK A01 T03151050  RH  009%=      5-min Rain = 0
KHO1 172202Z 29009KT 32/M05 A2995 RMK A01 T03151050  RH  009%=      5-min Rain = 0
KHO1 172203Z 27011KT 31/M05 A2995 RMK A01 T03141049  RH  009%=      5-min Rain = 0
KHO1 172204Z 27011KT 31/M05 A2995 RMK A01 T03131047  RH  009%=      5-min Rain = 0
KHO1 172205Z 27012KT 31/M05 A2995 RMK A01 T03131049  RH  009%=      5-min Rain = 0
KHO1 172206Z 27011KT 31/M05 A2995 RMK A01 T03131050  RH  009%=      5-min Rain = 0
KHO1 172207Z 27012KT 31/M05 A2995 RMK A01 T03131050  RH  009%=      5-min Rain = 0
KHO1 172208Z 27014KT 31/M05 A2995 RMK A01 T03141053  RH  009%=      5-min Rain = 0
KHO1 172209Z 26014KT 31/M05 A2995 RMK A01 T03121051  RH  009%=      5-min Rain = 0
KHO1 172210Z 26013KT 31/M05 A2995 RMK A01 T03111052  RH  009%=      5-min Rain = 0
KHO1 172211Z 26010KT 31/M05 A2995 RMK A01 T03101049  RH  009%=      5-min Rain = 0
KHO1 172212Z 26009KT 31/M05 A2995 RMK A01 T03111049  RH  009%=      5-min Rain = 0
KHO1 172213Z 26012KT 31/M05 A2995 RMK A01 T03121049  RH  009%=      5-min Rain = 0
KHO1 172214Z 27012KT 31/M05 A2995 RMK A01 T03121047  RH  009%=      5-min Rain = 0
KHO1 172215Z 27011KT 31/M05 A2995 RMK A01 T03111047  RH  010%=      5-min Rain = 0
KHO1 172216Z 27011KT 31/M05 A2995 RMK A01 T03111046  RH  010%=      5-min Rain = 0
KHO1 172217Z 27008KT 31/M05 A2995 RMK A01 T03101046  RH  010%=      5-min Rain = 0
KHO1 172218Z 28010KT 31/M05 A2994 RMK A01 T03101045  RH  010%=      5-min Rain = 0
KHO1 172219Z 28010KT 31/M04 A2994 RMK A01 T03111043  RH  010%=      5-min Rain = 0
KHO1 172220Z 28014KT 31/M04 A2994 RMK A01 T03111041  RH  010%=      5-min Rain = 0
KHO1 172221Z 27013KT 31/M04 A2994 RMK A01 T03101041  RH  010%=      5-min Rain = 0
KHO1 172222Z 27011KT 31/M04 A2994 RMK A01 T03101041  RH  010%=      5-min Rain = 0
KHO1 172223Z 26010KT 31/M04 A2994 RMK A01 T03111041  RH  010%=      5-min Rain = 0
KHO1 172224Z 25013KT 31/M04 A2994 RMK A01 T03121039  RH  010%=      5-min Rain = 0
KHO1 172225Z 25014KT 31/M04 A2994 RMK A01 T03111039  RH  010%=      5-min Rain = 0
KHO1 172226Z 25011KT 31/M04 A2994 RMK A01 T03091039  RH  010%=      5-min Rain = 0
KHO1 172227Z 24011KT 31/M04 A2994 RMK A01 T03091039  RH  010%=      5-min Rain = 0
KHO1 172228Z 24012KT 31/M04 A2994 RMK A01 T03091039  RH  010%=      5-min Rain = 0
KHO1 172229Z 25013KT 31/M04 A2994 RMK A01 T03091040  RH  010%=      5-min Rain = 0
KHO1 172230Z 26014KT 31/M04 A2994 RMK A01 T03101041  RH  010%=      5-min Rain = 0
KHO1 172231Z 26012KT 31/M04 A2994 RMK A01 T03091040  RH  010%=      5-min Rain = 0
KHO1 172232Z 26010KT 31/M04 A2994 RMK A01 T03101040  RH  010%=      5-min Rain = 0
KHO1 172233Z 27010KT 31/M04 A2994 RMK A01 T03111040  RH  010%=      5-min Rain = 0
KHO1 172234Z 27012KT 31/M04 A2994 RMK A01 T03111040  RH  010%=      5-min Rain = 0
KHO1 172235Z 26010KT 31/M04 A2994 RMK A01 T03101039  RH  010%=      5-min Rain = 0
KHO1 172236Z 26009KT 31/M04 A2994 RMK A01 T03101039  RH  010%=      5-min Rain = 0
KHO1 172237Z 26008KT 31/M04 A2994 RMK A01 T03101039  RH  010%=      5-min Rain = 0
KHO1 172238Z 26007KT 31/M04 A2994 RMK A01 T03111038  RH  010%=      5-min Rain = 0
KHO1 172239Z 27009KT 31/M04 A2994 RMK A01 T03121038  RH  010%=      5-min Rain = 0
KHO1 172240Z 25007KT 31/M04 A2994 RMK A01 T03121038  RH  010%=      5-min Rain = 0
KHO1 172241Z 24006KT 31/M04 A2994 RMK A01 T03121038  RH  010%=      5-min Rain = 0
KHO1 172242Z 24009KT 31/M04 A2994 RMK A01 T03131038  RH  010%=      5-min Rain = 0
KHO1 172243Z 24009KT 31/M04 A2994 RMK A01 T03131039  RH  010%=      5-min Rain = 0
KHO1 172244Z 23009KT 31/M04 A2994 RMK A01 T03121039  RH  010%=      5-min Rain = 0
KHO1 172245Z 25011KT 31/M04 A2994 RMK A01 T03121040  RH  010%=      5-min Rain = 0
KHO1 172246Z 27011KT 31/M04 A2994 RMK A01 T03121042  RH  010%=      5-min Rain = 0
KHO1 172247Z 27013KT 31/M04 A2994 RMK A01 T03111042  RH  010%=      5-min Rain = 0
KHO1 172248Z 26011KT 31/M04 A2994 RMK A01 T03101042  RH  010%=      5-min Rain = 0
KHO1 172249Z 25010KT 31/M04 A2994 RMK A01 T03101042  RH  010%=      5-min Rain = 0
KHO1 172250Z 27011KT 31/M04 A2994 RMK A01 T03101042  RH  010%=      5-min Rain = 0
KHO1 172251Z 26011KT 31/M04 A2994 RMK A01 T03101041  RH  010%=      5-min Rain = 0
KHO1 172252Z 26009KT 31/M04 A2994 RMK A01 T03101041  RH  010%=      5-min Rain = 0
KHO1 172253Z 25009KT 31/M04 A2994 RMK A01 T03101041  RH  010%=      5-min Rain = 0
KHO1 172254Z 26009KT 31/M04 A2994 RMK A01 T03101040  RH  010%=      5-min Rain = 0
KHO1 172255Z 27010KT 31/M04 A2993 RMK A01 T03101039  RH  010%=      5-min Rain = 0
KHO1 172256Z 27010KT 31/M04 A2993 RMK A01 T03101038  RH  010%=      5-min Rain = 0
KHO1 172257Z 26011KT 31/M04 A2993 RMK A01 T03091039  RH  010%=      5-min Rain = 0
KHO1 172258Z 28011KT 31/M04 A2993 RMK A01 T03091040  RH  010%=      5-min Rain = 0
KHO1 172259Z 27012KT 31/M04 A2993 RMK A01 T03091042  RH  010%=      5-min Rain = 0
KHO1 172300Z 26012KT 31/M04 A2993 RMK A01 T03091043  RH  010%=      5-min Rain = 0
KHO1 172301Z 27010KT 31/M04 A2993 RMK A01 T03091043  RH  010%=      5-min Rain = 0
KHO1 172302Z 27009KT 31/M04 A2993 RMK A01 T03091043  RH  010%=      5-min Rain = 0
KHO1 172303Z 27009KT 31/M04 A2993 RMK A01 T03101043  RH  010%=      5-min Rain = 0
KHO1 172304Z 27008KT 31/M04 A2993 RMK A01 T03101042  RH  010%=      5-min Rain = 0
KHO1 172305Z 28007KT 31/M04 A2994 RMK A01 T03101041  RH  010%=      5-min Rain = 0
KHO1 172306Z 28009KT 31/M04 A2994 RMK A01 T03101041  RH  010%=      5-min Rain = 0
KHO1 172307Z 27008KT 31/M04 A2994 RMK A01 T03101041  RH  010%=      5-min Rain = 0
KHO1 172308Z 27009KT 31/M04 A2994 RMK A01 T03091040  RH  010%=      5-min Rain = 0
KHO1 172309Z 27009KT 31/M04 A2993 RMK A01 T03091040  RH  010%=      5-min Rain = 0
KHO1 172310Z 27009KT 31/M04 A2994 RMK A01 T03091041  RH  010%=      5-min Rain = 0
KHO1 172311Z 25009KT 31/M04 A2994 RMK A01 T03091042  RH  010%=      5-min Rain = 0
KHO1 172312Z 26009KT 31/M04 A2994 RMK A01 T03081042  RH  010%=      5-min Rain = 0
KHO1 172313Z 25010KT 31/M04 A2993 RMK A01 T03081041  RH  010%=      5-min Rain = 0
KHO1 172314Z 24010KT 31/M04 A2993 RMK A01 T03071042  RH  010%=      5-min Rain = 0
KHO1 172315Z 24011KT 31/M04 A2993 RMK A01 T03071043  RH  010%=      5-min Rain = 0
KHO1 172316Z 25011KT 31/M04 A2993 RMK A01 T03061043  RH  010%=      5-min Rain = 0
KHO1 172317Z 24009KT 31/M04 A2993 RMK A01 T03061044  RH  010%=      5-min Rain = 0
KHO1 172318Z 25008KT 31/M04 A2993 RMK A01 T03061043  RH  010%=      5-min Rain = 0
KHO1 172319Z 25009KT 31/M04 A2993 RMK A01 T03061043  RH  010%=      5-min Rain = 0
KHO1 172320Z 26010KT 31/M04 A2993 RMK A01 T03061041  RH  010%=      5-min Rain = 0
KHO1 172321Z 26008KT 31/M04 A2993 RMK A01 T03061042  RH  010%=      5-min Rain = 0
KHO1 172322Z 25008KT 31/M04 A2993 RMK A01 T03061042  RH  010%=      5-min Rain = 0
KHO1 172323Z 26009KT 31/M04 A2993 RMK A01 T03061042  RH  010%=      5-min Rain = 0
KHO1 172324Z 25009KT 31/M04 A2993 RMK A01 T03061044  RH  010%=      5-min Rain = 0
KHO1 172325Z 24008KT 31/M04 A2993 RMK A01 T03051043  RH  010%=      5-min Rain = 0
KHO1 172326Z 24010KT 31/M05 A2993 RMK A01 T03051045  RH  010%=      5-min Rain = 0
KHO1 172327Z 24009KT 30/M05 A2993 RMK A01 T03041045  RH  010%=      5-min Rain = 0
KHO1 172328Z 24011KT 30/M05 A2993 RMK A01 T03041045  RH  010%=      5-min Rain = 0
KHO1 172329Z 24010KT 30/M05 A2993 RMK A01 T03031045  RH  010%=      5-min Rain = 0
KHO1 172330Z 25009KT 30/M05 A2993 RMK A01 T03031045  RH  010%=      5-min Rain = 0
KHO1 172331Z 25010KT 30/M05 A2993 RMK A01 T03021045  RH  010%=      5-min Rain = 0
KHO1 172332Z 24009KT 30/M05 A2993 RMK A01 T03021045  RH  010%=      5-min Rain = 0
KHO1 172333Z 24009KT 30/M04 A2993 RMK A01 T03011044  RH  010%=      5-min Rain = 0
KHO1 172334Z 25010KT 30/M04 A2993 RMK A01 T03011044  RH  010%=      5-min Rain = 0
KHO1 172335Z 25009KT 30/M04 A2993 RMK A01 T03011044  RH  010%=      5-min Rain = 0
KHO1 172336Z 24009KT 30/M04 A2993 RMK A01 T03001044  RH  010%=      5-min Rain = 0
KHO1 172337Z 24008KT 30/M04 A2993 RMK A01 T03001044  RH  010%=      5-min Rain = 0
KHO1 172338Z 24007KT 30/M04 A2993 RMK A01 T02991044  RH  010%=      5-min Rain = 0
KHO1 172339Z 25008KT 30/M04 A2993 RMK A01 T02991044  RH  010%=      5-min Rain = 0
KHO1 172340Z 24006KT 30/M04 A2993 RMK A01 T02981044  RH  011%=      5-min Rain = 0
KHO1 172341Z 24006KT 30/M04 A2993 RMK A01 T02981043  RH  011%=      5-min Rain = 0
KHO1 172342Z 24006KT 30/M04 A2993 RMK A01 T02971043  RH  011%=      5-min Rain = 0
KHO1 172343Z 23007KT 30/M04 A2993 RMK A01 T02961042  RH  011%=      5-min Rain = 0
KHO1 172344Z 23006KT 30/M04 A2993 RMK A01 T02961042  RH  011%=      5-min Rain = 0
KHO1 172345Z 24006KT 30/M04 A2993 RMK A01 T02951041  RH  011%=      5-min Rain = 0
KHO1 172346Z 24006KT 29/M04 A2993 RMK A01 T02941041  RH  011%=      5-min Rain = 0
KHO1 172347Z 24006KT 29/M04 A2993 RMK A01 T02941041  RH  011%=      5-min Rain = 0
KHO1 172348Z 24006KT 29/M04 A2993 RMK A01 T02931040  RH  011%=      5-min Rain = 0
KHO1 172349Z 24006KT 29/M04 A2994 RMK A01 T02931040  RH  011%=      5-min Rain = 0
KHO1 172350Z 24006KT 29/M04 A2994 RMK A01 T02921040  RH  011%=      5-min Rain = 0
KHO1 172351Z 24006KT 29/M04 A2994 RMK A01 T02911040  RH  011%=      5-min Rain = 0
KHO1 172352Z 24005KT 29/M04 A2993 RMK A01 T02901040  RH  011%=      5-min Rain = 0
KHO1 172353Z 24005KT 29/M04 A2994 RMK A01 T02891040  RH  011%=      5-min Rain = 0
KHO1 172354Z 24005KT 29/M04 A2994 RMK A01 T02871040  RH  012%=      5-min Rain = 0
KHO1 172355Z 24005KT 29/M04 A2993 RMK A01 T02861040  RH  012%=      5-min Rain = 0
KHO1 172356Z 24005KT 29/M04 A2993 RMK A01 T02851040  RH  012%=      5-min Rain = 0
KHO1 172357Z 24005KT 28/M04 A2993 RMK A01 T02841040  RH  012%=      5-min Rain = 0
KHO1 172358Z 24005KT 28/M04 A2993 RMK A01 T02831040  RH  012%=      5-min Rain = 0
KHO1 172359Z 24005KT 28/M04 A2993 RMK A01 T02821041  RH  012%=      5-min Rain = 0
KHO1 180000Z 24005KT 28/M04 A2993 RMK A01 T02811040  RH  012%=      5-min Rain = 0
KHO1 180001Z 23005KT 28/M04 A2993 RMK A01 T02801041  RH  012%=      5-min Rain = 0
KHO1 180002Z 23005KT 28/M04 A2993 RMK A01 T02801041  RH  012%=      5-min Rain = 0
KHO1 180003Z 23006KT 28/M04 A2993 RMK A01 T02791041  RH  012%=      5-min Rain = 0
KHO1 180004Z 23005KT 28/M04 A2993 RMK A01 T02781041  RH  012%=      5-min Rain = 0
KHO1 180005Z 23005KT 28/M04 A2993 RMK A01 T02781041  RH  012%=      5-min Rain = 0
KHO1 180006Z 23005KT 28/M04 A2993 RMK A01 T02771041  RH  012%=      5-min Rain = 0
KHO1 180007Z 23005KT 28/M04 A2993 RMK A01 T02761040  RH  012%=      5-min Rain = 0
KHO1 180008Z 23005KT 28/M04 A2993 RMK A01 T02751040  RH  012%=      5-min Rain = 0
KHO1 180009Z 24005KT 27/M04 A2993 RMK A01 T02741040  RH  012%=      5-min Rain = 0
KHO1 180010Z 24005KT 27/M04 A2993 RMK A01 T02731041  RH  012%=      5-min Rain = 0
KHO1 180011Z 23005KT 27/M04 A2993 RMK A01 T02731040  RH  013%=      5-min Rain = 0
KHO1 180012Z 23005KT 27/M04 A2993 RMK A01 T02721040  RH  013%=      5-min Rain = 0
KHO1 180013Z 23005KT 27/M04 A2993 RMK A01 T02711040  RH  013%=      5-min Rain = 0
KHO1 180014Z 23006KT 27/M04 A2993 RMK A01 T02711041  RH  013%=      5-min Rain = 0
KHO1 180015Z 23005KT 27/M04 A2993 RMK A01 T02701041  RH  013%=      5-min Rain = 0
KHO1 180016Z 23005KT 27/M04 A2993 RMK A01 T02691041  RH  013%=      5-min Rain = 0
KHO1 180017Z 23004KT 27/M04 A2993 RMK A01 T02681041  RH  013%=      5-min Rain = 0
KHO1 180018Z 24004KT 27/M04 A2993 RMK A01 T02671041  RH  013%=      5-min Rain = 0
KHO1 180019Z 24004KT 27/M04 A2993 RMK A01 T02651041  RH  013%=      5-min Rain = 0
KHO1 180020Z 24004KT 26/M04 A2993 RMK A01 T02641041  RH  013%=      5-min Rain = 0
KHO1 180021Z 25004KT 26/M04 A2993 RMK A01 T02631041  RH  013%=      5-min Rain = 0
KHO1 180022Z 26004KT 26/M04 A2993 RMK A01 T02631041  RH  013%=      5-min Rain = 0
KHO1 180023Z 26004KT 26/M04 A2993 RMK A01 T02631040  RH  013%=      5-min Rain = 0
KHO1 180024Z 26004KT 26/M04 A2993 RMK A01 T02621040  RH  013%=      5-min Rain = 0
KHO1 180025Z 27004KT 26/M04 A2993 RMK A01 T02611040  RH  013%=      5-min Rain = 0
KHO1 180026Z 27005KT 26/M04 A2993 RMK A01 T02611041  RH  013%=      5-min Rain = 0
KHO1 180027Z 26005KT 26/M04 A2993 RMK A01 T02621040  RH  013%=      5-min Rain = 0
KHO1 180028Z 24006KT 26/M04 A2993 RMK A01 T02611040  RH  013%=      5-min Rain = 0
KHO1 180029Z 24006KT 26/M04 A2993 RMK A01 T02611040  RH  013%=      5-min Rain = 0
KHO1 180030Z 24005KT 26/M04 A2993 RMK A01 T02621040  RH  013%=      5-min Rain = 0
KHO1 180031Z 25006KT 26/M04 A2993 RMK A01 T02611040  RH  013%=      5-min Rain = 0
KHO1 180032Z 25006KT 26/M04 A2993 RMK A01 T02601040  RH  014%=      5-min Rain = 0
KHO1 180033Z 25006KT 26/M04 A2993 RMK A01 T02591040  RH  014%=      5-min Rain = 0
KHO1 180034Z 24005KT 26/M04 A2993 RMK A01 T02571041  RH  014%=      5-min Rain = 0
KHO1 180035Z 24006KT 26/M04 A2993 RMK A01 T02561041  RH  014%=      5-min Rain = 0
KHO1 180036Z 25006KT 25/M04 A2993 RMK A01 T02541042  RH  014%=      5-min Rain = 0
KHO1 180037Z 25006KT 25/M04 A2993 RMK A01 T02531042  RH  014%=      5-min Rain = 0
KHO1 180038Z 25006KT 25/M04 A2993 RMK A01 T02521042  RH  014%=      5-min Rain = 0
KHO1 180039Z 24006KT 25/M04 A2993 RMK A01 T02521042  RH  014%=      5-min Rain = 0
KHO1 180040Z 24006KT 25/M04 A2993 RMK A01 T02511043  RH  014%=      5-min Rain = 0
KHO1 180041Z 24006KT 25/M04 A2993 RMK A01 T02501043  RH  014%=      5-min Rain = 0
KHO1 180042Z 24006KT 25/M04 A2993 RMK A01 T02491043  RH  014%=      5-min Rain = 0
KHO1 180043Z 24006KT 25/M04 A2993 RMK A01 T02491043  RH  014%=      5-min Rain = 0
KHO1 180044Z 24007KT 25/M04 A2993 RMK A01 T02481043  RH  014%=      5-min Rain = 0
KHO1 180045Z 23007KT 25/M04 A2993 RMK A01 T02481042  RH  014%=      5-min Rain = 0
KHO1 180046Z 23006KT 25/M04 A2993 RMK A01 T02481042  RH  014%=      5-min Rain = 0
KHO1 180047Z 23007KT 25/M04 A2993 RMK A01 T02481042  RH  014%=      5-min Rain = 0
KHO1 180048Z 23007KT 25/M04 A2993 RMK A01 T02491042  RH  014%=      5-min Rain = 0
KHO1 180049Z 23006KT 25/M04 A2993 RMK A01 T02491041  RH  014%=      5-min Rain = 0
KHO1 180050Z 22007KT 25/M04 A2993 RMK A01 T02491042  RH  014%=      5-min Rain = 0
KHO1 180051Z 22006KT 25/M04 A2993 RMK A01 T02471043  RH  014%=      5-min Rain = 0
KHO1 180052Z 22006KT 25/M04 A2993 RMK A01 T02461044  RH  014%=      5-min Rain = 0
KHO1 180053Z 22006KT 24/M04 A2993 RMK A01 T02441044  RH  015%=      5-min Rain = 0
KHO1 180054Z 22006KT 24/M04 A2993 RMK A01 T02431043  RH  015%=      5-min Rain = 0
KHO1 180055Z 23006KT 24/M04 A2993 RMK A01 T02421043  RH  015%=      5-min Rain = 0
KHO1 180056Z 22006KT 24/M04 A2993 RMK A01 T02431042  RH  015%=      5-min Rain = 0
KHO1 180057Z 22006KT 24/M04 A2993 RMK A01 T02431042  RH  015%=      5-min Rain = 0
KHO1 180058Z 22005KT 24/M04 A2993 RMK A01 T02441041  RH  015%=      5-min Rain = 0
KHO1 180059Z 23005KT 25/M04 A2993 RMK A01 T02451041  RH  015%=      5-min Rain = 0
KHO1 180100Z 23005KT 25/M04 A2993 RMK A01 T02451041  RH  015%=      5-min Rain = 0
KHO1 180101Z 24004KT 25/M04 A2993 RMK A01 T02451041  RH  015%=      5-min Rain = 0
KHO1 180102Z 24005KT 25/M04 A2993 RMK A01 T02451041  RH  015%=      5-min Rain = 0
KHO1 180103Z 24005KT 24/M04 A2993 RMK A01 T02441041  RH  015%=      5-min Rain = 0
KHO1 180104Z 24005KT 24/M04 A2993 RMK A01 T02431041  RH  015%=      5-min Rain = 0
KHO1 180105Z 23004KT 24/M04 A2993 RMK A01 T02421042  RH  015%=      5-min Rain = 0
KHO1 180106Z 23005KT 24/M04 A2993 RMK A01 T02411043  RH  015%=      5-min Rain = 0
KHO1 180107Z 24005KT 24/M04 A2993 RMK A01 T02391043  RH  015%=      5-min Rain = 0
KHO1 180108Z 24005KT 24/M04 A2994 RMK A01 T02371044  RH  015%=      5-min Rain = 0
KHO1 180109Z 24005KT 24/M05 A2993 RMK A01 T02351045  RH  015%=      5-min Rain = 0
KHO1 180110Z 24005KT 23/M04 A2994 RMK A01 T02341043  RH  015%=      5-min Rain = 0
KHO1 180111Z 24006KT 23/M04 A2994 RMK A01 T02331042  RH  016%=      5-min Rain = 0
KHO1 180112Z 25005KT 23/M04 A2994 RMK A01 T02321041  RH  016%=      5-min Rain = 0
KHO1 180113Z 26006KT 23/M04 A2994 RMK A01 T02311041  RH  016%=      5-min Rain = 0
KHO1 180114Z 26006KT 23/M04 A2994 RMK A01 T02311040  RH  016%=      5-min Rain = 0
KHO1 180115Z 25005KT 23/M04 A2994 RMK A01 T02321040  RH  016%=      5-min Rain = 0
KHO1 180116Z 25006KT 23/M04 A2994 RMK A01 T02331040  RH  016%=      5-min Rain = 0
KHO1 180117Z 25006KT 23/M04 A2994 RMK A01 T02331039  RH  016%=      5-min Rain = 0
KHO1 180118Z 24006KT 23/M04 A2994 RMK A01 T02331040  RH  016%=      5-min Rain = 0
KHO1 180119Z 24007KT 23/M04 A2994 RMK A01 T02321041  RH  016%=      5-min Rain = 0
KHO1 180120Z 24007KT 23/M04 A2994 RMK A01 T02311041  RH  016%=      5-min Rain = 0
KHO1 180121Z 24007KT 23/M04 A2994 RMK A01 T02301040  RH  016%=      5-min Rain = 0
KHO1 180122Z 24007KT 23/M04 A2994 RMK A01 T02291040  RH  016%=      5-min Rain = 0
KHO1 180123Z 24007KT 23/M04 A2994 RMK A01 T02291040  RH  016%=      5-min Rain = 0
KHO1 180124Z 24006KT 23/M04 A2994 RMK A01 T02291040  RH  016%=      5-min Rain = 0
KHO1 180125Z 24006KT 23/M04 A2994 RMK A01 T02281041  RH  016%=      5-min Rain = 0
KHO1 180126Z 24006KT 23/M04 A2994 RMK A01 T02271041  RH  016%=      5-min Rain = 0
KHO1 180127Z 23006KT 23/M04 A2994 RMK A01 T02261041  RH  017%=      5-min Rain = 0
KHO1 180128Z 23005KT 23/M04 A2994 RMK A01 T02251041  RH  017%=      5-min Rain = 0
KHO1 180129Z 23005KT 22/M04 A2994 RMK A01 T02241041  RH  017%=      5-min Rain = 0
KHO1 180130Z 23005KT 22/M04 A2994 RMK A01 T02241041  RH  017%=      5-min Rain = 0
KHO1 180131Z 23005KT 22/M04 A2994 RMK A01 T02231041  RH  017%=      5-min Rain = 0
KHO1 180132Z 23005KT 22/M04 A2994 RMK A01 T02221041  RH  017%=      5-min Rain = 0
KHO1 180133Z 24005KT 22/M04 A2994 RMK A01 T02221041  RH  017%=      5-min Rain = 0
KHO1 180134Z 24004KT 22/M04 A2994 RMK A01 T02211041  RH  017%=      5-min Rain = 0
KHO1 180135Z 24004KT 22/M04 A2994 RMK A01 T02211041  RH  017%=      5-min Rain = 0
KHO1 180136Z 24004KT 22/M04 A2994 RMK A01 T02201041  RH  017%=      5-min Rain = 0
KHO1 180137Z 25004KT 22/M04 A2994 RMK A01 T02191041  RH  017%=      5-min Rain = 0
KHO1 180138Z 25004KT 22/M04 A2994 RMK A01 T02191041  RH  017%=      5-min Rain = 0
KHO1 180139Z 27004KT 22/M04 A2994 RMK A01 T02191040  RH  017%=      5-min Rain = 0
KHO1 180140Z 27004KT 22/M04 A2994 RMK A01 T02191040  RH  017%=      5-min Rain = 0
KHO1 180141Z 25004KT 22/M04 A2994 RMK A01 T02191039  RH  017%=      5-min Rain = 0
KHO1 180142Z 25004KT 22/M04 A2994 RMK A01 T02191039  RH  017%=      5-min Rain = 0
KHO1 180143Z 25005KT 22/M04 A2994 RMK A01 T02191039  RH  017%=      5-min Rain = 0
KHO1 180144Z 25006KT 22/M04 A2994 RMK A01 T02191040  RH  017%=      5-min Rain = 0
KHO1 180145Z 25006KT 22/M04 A2994 RMK A01 T02181040  RH  017%=      5-min Rain = 0
KHO1 180146Z 25006KT 22/M04 A2994 RMK A01 T02171040  RH  018%=      5-min Rain = 0
KHO1 180147Z 25007KT 22/M04 A2994 RMK A01 T02161040  RH  018%=      5-min Rain = 0
KHO1 180148Z 25007KT 21/M04 A2994 RMK A01 T02141040  RH  018%=      5-min Rain = 0
KHO1 180149Z 26007KT 21/M04 A2994 RMK A01 T02121039  RH  018%=      5-min Rain = 0
KHO1 180150Z 25008KT 21/M04 A2994 RMK A01 T02111039  RH  018%=      5-min Rain = 0
KHO1 180151Z 24008KT 21/M04 A2994 RMK A01 T02101039  RH  018%=      5-min Rain = 0
KHO1 180152Z 25008KT 21/M04 A2994 RMK A01 T02091040  RH  018%=      5-min Rain = 0
KHO1 180153Z 24009KT 21/M04 A2994 RMK A01 T02081040  RH  019%=      5-min Rain = 0
KHO1 180154Z 24009KT 21/M04 A2994 RMK A01 T02071040  RH  019%=      5-min Rain = 0
KHO1 180155Z 24009KT 21/M04 A2994 RMK A01 T02061040  RH  019%=      5-min Rain = 0
KHO1 180156Z 25008KT 21/M04 A2994 RMK A01 T02061040  RH  019%=      5-min Rain = 0
KHO1 180157Z 24008KT 20/M04 A2994 RMK A01 T02041040  RH  019%=      5-min Rain = 0
KHO1 180158Z 25008KT 20/M04 A2994 RMK A01 T02031040  RH  019%=      5-min Rain = 0
KHO1 180159Z 26007KT 20/M04 A2994 RMK A01 T02021040  RH  019%=      5-min Rain = 0
KHO1 180200Z 25007KT 20/M04 A2994 RMK A01 T02011040  RH  019%=      5-min Rain = 0
KHO1 180201Z 26007KT 20/M04 A2994 RMK A01 T02021039  RH  019%=      5-min Rain = 0
KHO1 180202Z 25007KT 20/M04 A2994 RMK A01 T02031038  RH  019%=      5-min Rain = 0
KHO1 180203Z 25007KT 21/M04 A2994 RMK A01 T02051037  RH  019%=      5-min Rain = 0
KHO1 180204Z 25007KT 21/M04 A2994 RMK A01 T02061037  RH  019%=      5-min Rain = 0
KHO1 180205Z 25007KT 21/M04 A2994 RMK A01 T02071038  RH  019%=      5-min Rain = 0
KHO1 180206Z 25007KT 21/M04 A2994 RMK A01 T02081039  RH  019%=      5-min Rain = 0
KHO1 180207Z 25007KT 21/M04 A2994 RMK A01 T02081040  RH  019%=      5-min Rain = 0
KHO1 180208Z 25007KT 21/M04 A2994 RMK A01 T02081041  RH  018%=      5-min Rain = 0
KHO1 180209Z 25007KT 21/M04 A2994 RMK A01 T02081041  RH  018%=      5-min Rain = 0
KHO1 180210Z 25007KT 21/M04 A2994 RMK A01 T02081041  RH  018%=      5-min Rain = 0
KHO1 180211Z 26007KT 21/M04 A2994 RMK A01 T02081042  RH  018%=      5-min Rain = 0
KHO1 180212Z 25007KT 21/M04 A2994 RMK A01 T02091042  RH  018%=      5-min Rain = 0
KHO1 180213Z 25006KT 21/M04 A2994 RMK A01 T02101042  RH  018%=      5-min Rain = 0
KHO1 180214Z 26006KT 21/M04 A2994 RMK A01 T02101042  RH  018%=      5-min Rain = 0
KHO1 180215Z 25006KT 21/M04 A2994 RMK A01 T02101042  RH  018%=      5-min Rain = 0
KHO1 180216Z 25006KT 21/M04 A2994 RMK A01 T02111043  RH  018%=      5-min Rain = 0
KHO1 180217Z 25006KT 21/M04 A2994 RMK A01 T02111043  RH  018%=      5-min Rain = 0
KHO1 180218Z 25006KT 21/M04 A2994 RMK A01 T02111043  RH  018%=      5-min Rain = 0
KHO1 180219Z 25005KT 21/M04 A2994 RMK A01 T02101043  RH  018%=      5-min Rain = 0
KHO1 180220Z 25005KT 21/M04 A2994 RMK A01 T02091043  RH  018%=      5-min Rain = 0
KHO1 180221Z 24005KT 21/M04 A2994 RMK A01 T02081043  RH  018%=      5-min Rain = 0
KHO1 180222Z 23005KT 21/M04 A2994 RMK A01 T02071044  RH  018%=      5-min Rain = 0
KHO1 180223Z 23005KT 21/M04 A2994 RMK A01 T02061044  RH  018%=      5-min Rain = 0
KHO1 180224Z 23005KT 21/M04 A2994 RMK A01 T02051044  RH  018%=      5-min Rain = 0
KHO1 180225Z 23005KT 20/M04 A2994 RMK A01 T02041044  RH  018%=      5-min Rain = 0
KHO1 180226Z 23005KT 20/M04 A2994 RMK A01 T02031044  RH  019%=      5-min Rain = 0
KHO1 180227Z 23005KT 20/M04 A2994 RMK A01 T02031043  RH  019%=      5-min Rain = 0
KHO1 180228Z 23005KT 20/M04 A2994 RMK A01 T02031043  RH  019%=      5-min Rain = 0
KHO1 180229Z 23005KT 20/M04 A2994 RMK A01 T02031044  RH  019%=      5-min Rain = 0
KHO1 180230Z 23006KT 20/M04 A2994 RMK A01 T02021043  RH  019%=      5-min Rain = 0
KHO1 180231Z 23006KT 20/M04 A2994 RMK A01 T02021043  RH  019%=      5-min Rain = 0
KHO1 180232Z 24006KT 20/M04 A2994 RMK A01 T02021043  RH  019%=      5-min Rain = 0
KHO1 180233Z 24006KT 20/M04 A2994 RMK A01 T02011043  RH  019%=      5-min Rain = 0
KHO1 180234Z 24006KT 20/M04 A2994 RMK A01 T02011043  RH  019%=      5-min Rain = 0
KHO1 180235Z 24006KT 20/M04 A2994 RMK A01 T02001043  RH  019%=      5-min Rain = 0
KHO1 180236Z 24006KT 20/M04 A2994 RMK A01 T01991043  RH  019%=      5-min Rain = 0
KHO1 180237Z 23006KT 20/M04 A2994 RMK A01 T01981043  RH  019%=      5-min Rain = 0
KHO1 180238Z 23007KT 20/M04 A2994 RMK A01 T01971043  RH  019%=      5-min Rain = 0
KHO1 180239Z 24007KT 20/M04 A2994 RMK A01 T01971043  RH  019%=      5-min Rain = 0
KHO1 180240Z 23007KT 20/M04 A2994 RMK A01 T01971042  RH  020%=      5-min Rain = 0
KHO1 180241Z 23007KT 20/M04 A2994 RMK A01 T01971042  RH  020%=      5-min Rain = 0
KHO1 180242Z 23007KT 20/M04 A2994 RMK A01 T01971043  RH  019%=      5-min Rain = 0
KHO1 180243Z 23006KT 20/M04 A2994 RMK A01 T01971043  RH  019%=      5-min Rain = 0
KHO1 180244Z 24007KT 20/M04 A2994 RMK A01 T01961043  RH  020%=      5-min Rain = 0
KHO1 180245Z 24007KT 20/M04 A2994 RMK A01 T01951043  RH  020%=      5-min Rain = 0
KHO1 180246Z 24007KT 20/M04 A2994 RMK A01 T01951043  RH  020%=      5-min Rain = 0
KHO1 180247Z 24007KT 20/M04 A2994 RMK A01 T01951043  RH  020%=      5-min Rain = 0
KHO1 180248Z 25007KT 19/M04 A2994 RMK A01 T01941044  RH  020%=      5-min Rain = 0
KHO1 180249Z 25007KT 19/M05 A2994 RMK A01 T01931045  RH  020%=      5-min Rain = 0
KHO1 180250Z 25007KT 19/M04 A2994 RMK A01 T01921044  RH  020%=      5-min Rain = 0
KHO1 180251Z 25008KT 19/M04 A2994 RMK A01 T01921043  RH  020%=      5-min Rain = 0
KHO1 180252Z 25009KT 19/M04 A2994 RMK A01 T01921042  RH  020%=      5-min Rain = 0
KHO1 180253Z 25009KT 19/M04 A2994 RMK A01 T01941041  RH  020%=      5-min Rain = 0
KHO1 180254Z 25009KT 20/M04 A2994 RMK A01 T01961039  RH  020%=      5-min Rain = 0
KHO1 180255Z 25010KT 20/M04 A2994 RMK A01 T02001038  RH  020%=      5-min Rain = 0
KHO1 180256Z 25010KT 21/M04 A2994 RMK A01 T02051036  RH  019%=      5-min Rain = 0
KHO1 180257Z 26010KT 21/M03 A2994 RMK A01 T02101034  RH  019%=      5-min Rain = 0
KHO1 180258Z 26010KT 22/M03 A2994 RMK A01 T02151034  RH  018%=      5-min Rain = 0
KHO1 180259Z 26010KT 22/M04 A2994 RMK A01 T02201035  RH  018%=      5-min Rain = 0
KHO1 180300Z 26010KT 22/M04 A2994 RMK A01 T02221035  RH  018%=      5-min Rain = 0
KHO1 180301Z 26010KT 22/M04 A2994 RMK A01 T02241035  RH  017%=      5-min Rain = 0
KHO1 180302Z 26011KT 23/M04 A2994 RMK A01 T02251035  RH  017%=      5-min Rain = 0
KHO1 180303Z 26011KT 23/M04 A2994 RMK A01 T02271036  RH  017%=      5-min Rain = 0
KHO1 180304Z 26010KT 23/M04 A2994 RMK A01 T02271036  RH  017%=      5-min Rain = 0
KHO1 180305Z 26010KT 23/M04 A2994 RMK A01 T02271037  RH  017%=      5-min Rain = 0
KHO1 180306Z 27010KT 23/M04 A2995 RMK A01 T02271037  RH  017%=      5-min Rain = 0
KHO1 180307Z 27009KT 23/M04 A2995 RMK A01 T02261037  RH  017%=      5-min Rain = 0
KHO1 180308Z 27009KT 23/M04 A2995 RMK A01 T02251037  RH  017%=      5-min Rain = 0
KHO1 180309Z 27009KT 22/M04 A2995 RMK A01 T02241037  RH  017%=      5-min Rain = 0
KHO1 180310Z 27009KT 22/M04 A2995 RMK A01 T02231037  RH  017%=      5-min Rain = 0
KHO1 180311Z 27009KT 22/M04 A2995 RMK A01 T02221037  RH  017%=      5-min Rain = 0
KHO1 180312Z 27009KT 22/M04 A2995 RMK A01 T02211037  RH  018%=      5-min Rain = 0
KHO1 180313Z 27008KT 22/M04 A2995 RMK A01 T02201037  RH  018%=      5-min Rain = 0
KHO1 180314Z 28008KT 22/M04 A2995 RMK A01 T02181037  RH  018%=      5-min Rain = 0
KHO1 180315Z 27009KT 22/M04 A2995 RMK A01 T02181036  RH  018%=      5-min Rain = 0
KHO1 180316Z 27009KT 22/M04 A2995 RMK A01 T02181036  RH  018%=      5-min Rain = 0
KHO1 180317Z 27009KT 22/M04 A2995 RMK A01 T02171036  RH  018%=      5-min Rain = 0
KHO1 180318Z 28008KT 22/M04 A2995 RMK A01 T02181036  RH  018%=      5-min Rain = 0
KHO1 180319Z 27009KT 22/M04 A2995 RMK A01 T02171036  RH  018%=      5-min Rain = 0
KHO1 180320Z 27008KT 22/M04 A2995 RMK A01 T02171036  RH  018%=      5-min Rain = 0
KHO1 180321Z 27009KT 22/M04 A2995 RMK A01 T02161035  RH  018%=      5-min Rain = 0
KHO1 180322Z 28009KT 22/M04 A2995 RMK A01 T02161035  RH  018%=      5-min Rain = 0
KHO1 180323Z 27009KT 22/M04 A2995 RMK A01 T02161035  RH  018%=      5-min Rain = 0
KHO1 180324Z 27009KT 22/M04 A2995 RMK A01 T02161035  RH  018%=      5-min Rain = 0
KHO1 180325Z 27008KT 22/M04 A2995 RMK A01 T02151035  RH  018%=      5-min Rain = 0
KHO1 180326Z 27008KT 21/M04 A2995 RMK A01 T02141035  RH  018%=      5-min Rain = 0
KHO1 180327Z 27008KT 21/M04 A2995 RMK A01 T02131035  RH  019%=      5-min Rain = 0
KHO1 180328Z 27008KT 21/M04 A2995 RMK A01 T02131035  RH  019%=      5-min Rain = 0
KHO1 180329Z 27008KT 21/M04 A2995 RMK A01 T02121035  RH  019%=      5-min Rain = 0
KHO1 180330Z 27008KT 21/M04 A2995 RMK A01 T02111035  RH  019%=      5-min Rain = 0
KHO1 180331Z 27008KT 21/M04 A2995 RMK A01 T02101035  RH  019%=      5-min Rain = 0
KHO1 180332Z 27008KT 21/M04 A2995 RMK A01 T02091035  RH  019%=      5-min Rain = 0
KHO1 180333Z 27008KT 21/M04 A2995 RMK A01 T02091035  RH  019%=      5-min Rain = 0
KHO1 180334Z 27007KT 21/M04 A2995 RMK A01 T02081035  RH  019%=      5-min Rain = 0
KHO1 180335Z 27007KT 21/M04 A2996 RMK A01 T02071036  RH  019%=      5-min Rain = 0
KHO1 180336Z 27008KT 21/M04 A2995 RMK A01 T02061036  RH  019%=      5-min Rain = 0
KHO1 180337Z 27007KT 21/M04 A2995 RMK A01 T02061037  RH  019%=      5-min Rain = 0
KHO1 180338Z 27007KT 21/M04 A2995 RMK A01 T02061037  RH  019%=      5-min Rain = 0
KHO1 180339Z 27007KT 21/M04 A2995 RMK A01 T02051037  RH  019%=      5-min Rain = 0
KHO1 180340Z 26007KT 20/M04 A2995 RMK A01 T02041036  RH  019%=      5-min Rain = 0
KHO1 180341Z 26007KT 20/M04 A2995 RMK A01 T02041036  RH  020%=      5-min Rain = 0
KHO1 180342Z 26006KT 20/M04 A2995 RMK A01 T02031036  RH  020%=      5-min Rain = 0
KHO1 180343Z 26006KT 20/M04 A2995 RMK A01 T02021036  RH  020%=      5-min Rain = 0
KHO1 180344Z 26006KT 20/M04 A2995 RMK A01 T02011036  RH  020%=      5-min Rain = 0
KHO1 180345Z 26007KT 20/M04 A2995 RMK A01 T02001036  RH  020%=      5-min Rain = 0
KHO1 180346Z 25005KT 20/M04 A2995 RMK A01 T02001036  RH  020%=      5-min Rain = 0
KHO1 180347Z 25006KT 20/M04 A2995 RMK A01 T01981036  RH  020%=      5-min Rain = 0
KHO1 180348Z 24006KT 20/M04 A2995 RMK A01 T01961036  RH  021%=      5-min Rain = 0
KHO1 180349Z 25006KT 19/M04 A2995 RMK A01 T01931036  RH  021%=      5-min Rain = 0
KHO1 180350Z 25006KT 19/M04 A2995 RMK A01 T01911036  RH  021%=      5-min Rain = 0
KHO1 180351Z 24006KT 19/M04 A2995 RMK A01 T01901036  RH  021%=      5-min Rain = 0
KHO1 180352Z 24006KT 19/M04 A2995 RMK A01 T01891036  RH  021%=      5-min Rain = 0
KHO1 180353Z 24006KT 19/M04 A2996 RMK A01 T01871037  RH  022%=      5-min Rain = 0
KHO1 180354Z 25005KT 19/M04 A2996 RMK A01 T01861036  RH  022%=      5-min Rain = 0
KHO1 180355Z 25005KT 19/M04 A2996 RMK A01 T01851036  RH  022%=      5-min Rain = 0
KHO1 180356Z 25005KT 19/M04 A2996 RMK A01 T01851036  RH  022%=      5-min Rain = 0
KHO1 180357Z 25005KT 18/M04 A2996 RMK A01 T01841036  RH  022%=      5-min Rain = 0
KHO1 180358Z 26005KT 18/M04 A2996 RMK A01 T01831036  RH  022%=      5-min Rain = 0
KHO1 180359Z 26005KT 18/M04 A2996 RMK A01 T01821036  RH  022%=      5-min Rain = 0
KHO1 180400Z 26004KT 18/M04 A2996 RMK A01 T01821036  RH  022%=      5-min Rain = 0
KHO1 180401Z 26004KT 18/M04 A2996 RMK A01 T01811036  RH  022%=      5-min Rain = 0
KHO1 180402Z 26004KT 18/M04 A2996 RMK A01 T01811036  RH  023%=      5-min Rain = 0
KHO1 180403Z 26004KT 18/M04 A2996 RMK A01 T01811036  RH  023%=      5-min Rain = 0
KHO1 180404Z 24004KT 18/M04 A2996 RMK A01 T01801036  RH  023%=      5-min Rain = 0
KHO1 180405Z 23004KT 18/M04 A2996 RMK A01 T01801036  RH  023%=      5-min Rain = 0
KHO1 180406Z 24004KT 18/M04 A2996 RMK A01 T01791037  RH  023%=      5-min Rain = 0
KHO1 180407Z 25005KT 18/M04 A2996 RMK A01 T01781037  RH  023%=      5-min Rain = 0
KHO1 180408Z 25005KT 18/M04 A2996 RMK A01 T01771037  RH  023%=      5-min Rain = 0
KHO1 180409Z 25004KT 18/M04 A2996 RMK A01 T01771036  RH  023%=      5-min Rain = 0
KHO1 180410Z 24005KT 18/M04 A2996 RMK A01 T01771036  RH  023%=      5-min Rain = 0
KHO1 180411Z 25004KT 18/M04 A2996 RMK A01 T01781036  RH  023%=      5-min Rain = 0
KHO1 180412Z 25005KT 18/M04 A2996 RMK A01 T01781036  RH  023%=      5-min Rain = 0
KHO1 180413Z 26005KT 18/M04 A2996 RMK A01 T01781036  RH  023%=      5-min Rain = 0
KHO1 180414Z 25005KT 18/M04 A2996 RMK A01 T01781036  RH  023%=      5-min Rain = 0
KHO1 180415Z 25004KT 18/M04 A2996 RMK A01 T01771036  RH  023%=      5-min Rain = 0
KHO1 180416Z 25004KT 18/M04 A2996 RMK A01 T01771036  RH  023%=      5-min Rain = 0
KHO1 180417Z 26004KT 18/M04 A2996 RMK A01 T01771036  RH  023%=      5-min Rain = 0
KHO1 180418Z 26005KT 18/M04 A2996 RMK A01 T01771036  RH  023%=      5-min Rain = 0
KHO1 180419Z 25005KT 18/M04 A2996 RMK A01 T01761035  RH  023%=      5-min Rain = 0
KHO1 180420Z 25004KT 18/M04 A2996 RMK A01 T01761035  RH  023%=      5-min Rain = 0
KHO1 180421Z 26005KT 18/M04 A2996 RMK A01 T01761035  RH  023%=      5-min Rain = 0
KHO1 180422Z 25004KT 18/M04 A2996 RMK A01 T01761035  RH  023%=      5-min Rain = 0
KHO1 180423Z 25004KT 18/M04 A2996 RMK A01 T01761035  RH  023%=      5-min Rain = 0
KHO1 180424Z 25004KT 18/M04 A2996 RMK A01 T01761035  RH  024%=      5-min Rain = 0
KHO1 180425Z 25004KT 18/M04 A2996 RMK A01 T01751035  RH  024%=      5-min Rain = 0
KHO1 180426Z 25004KT 18/M04 A2996 RMK A01 T01751035  RH  024%=      5-min Rain = 0
KHO1 180427Z 25004KT 17/M04 A2996 RMK A01 T01741035  RH  024%=      5-min Rain = 0
KHO1 180428Z 25005KT 17/M03 A2996 RMK A01 T01741034  RH  024%=      5-min Rain = 0
KHO1 180429Z 25005KT 17/M03 A2996 RMK A01 T01741034  RH  024%=      5-min Rain = 0
KHO1 180430Z 25006KT 17/M03 A2996 RMK A01 T01741034  RH  024%=      5-min Rain = 0
KHO1 180431Z 25006KT 18/M03 A2996 RMK A01 T01751033  RH  024%=      5-min Rain = 0
KHO1 180432Z 25006KT 18/M03 A2996 RMK A01 T01751033  RH  024%=      5-min Rain = 0
KHO1 180433Z 24006KT 18/M03 A2996 RMK A01 T01761033  RH  024%=      5-min Rain = 0
KHO1 180434Z 24006KT 18/M03 A2996 RMK A01 T01771033  RH  024%=      5-min Rain = 0
KHO1 180435Z 25006KT 18/M03 A2996 RMK A01 T01771033  RH  024%=      5-min Rain = 0
KHO1 180436Z 25005KT 18/M03 A2996 RMK A01 T01771032  RH  024%=      5-min Rain = 0
KHO1 180437Z 24005KT 18/M03 A2996 RMK A01 T01781032  RH  024%=      5-min Rain = 0
KHO1 180438Z 24005KT 18/M03 A2996 RMK A01 T01781033  RH  024%=      5-min Rain = 0
KHO1 180439Z 25006KT 18/M03 A2996 RMK A01 T01781033  RH  024%=      5-min Rain = 0
KHO1 180440Z 24006KT 18/M03 A2996 RMK A01 T01781033  RH  024%=      5-min Rain = 0
KHO1 180441Z 24006KT 18/M03 A2996 RMK A01 T01771033  RH  024%=      5-min Rain = 0
KHO1 180442Z 24006KT 18/M03 A2996 RMK A01 T01771033  RH  024%=      5-min Rain = 0
KHO1 180443Z 24006KT 18/M03 A2996 RMK A01 T01761033  RH  024%=      5-min Rain = 0
KHO1 180444Z 24006KT 18/M03 A2996 RMK A01 T01761033  RH  024%=      5-min Rain = 0
KHO1 180445Z 23005KT 18/M03 A2996 RMK A01 T01761033  RH  024%=      5-min Rain = 0
KHO1 180446Z 24005KT 18/M03 A2996 RMK A01 T01761033  RH  024%=      5-min Rain = 0
KHO1 180447Z 24006KT 18/M03 A2996 RMK A01 T01751033  RH  024%=      5-min Rain = 0
KHO1 180448Z 24006KT 17/M03 A2996 RMK A01 T01741032  RH  024%=      5-min Rain = 0
KHO1 180449Z 24006KT 17/M03 A2996 RMK A01 T01741032  RH  024%=      5-min Rain = 0
KHO1 180450Z 24007KT 17/M03 A2996 RMK A01 T01741032  RH  024%=      5-min Rain = 0
KHO1 180451Z 24007KT 17/M03 A2996 RMK A01 T01741032  RH  024%=      5-min Rain = 0
KHO1 180452Z 24007KT 17/M03 A2996 RMK A01 T01741032  RH  024%=      5-min Rain = 0
KHO1 180453Z 24007KT 17/M03 A2996 RMK A01 T01741032  RH  024%=      5-min Rain = 0
KHO1 180454Z 24007KT 17/M03 A2996 RMK A01 T01731032  RH  024%=      5-min Rain = 0
KHO1 180455Z 24007KT 17/M03 A2996 RMK A01 T01731032  RH  025%=      5-min Rain = 0
KHO1 180456Z 24007KT 17/M03 A2996 RMK A01 T01721032  RH  025%=      5-min Rain = 0
KHO1 180457Z 25007KT 17/M03 A2996 RMK A01 T01711032  RH  025%=      5-min Rain = 0
KHO1 180458Z 25007KT 17/M03 A2996 RMK A01 T01711032  RH  025%=      5-min Rain = 0
KHO1 180459Z 25007KT 17/M03 A2996 RMK A01 T01701032  RH  025%=      5-min Rain = 0

Page generated in 0.1459 seconds.